Time,TemperatureF,DewpointF,PressureIn,WindDirection,WindDirectionDegrees,WindSpeedMPH,WindSpeedGustMPH,Humidity,HourlyPrecipIn,Conditions,Clouds,dailyrainin,SoftwareType,DateUTC
2013-02-17 00:01:00,38.5,36.1,30.27,ENE,68,0.0,1.1,91,0.00,,CLR,0.00,VWS V14.00,2013-02-17 08:01:00,
2013-02-17 00:06:00,38.3,35.9,30.27,East,90,0.0,2.0,91,0.00,,CLR,0.00,VWS V14.00,2013-02-17 08:06:00,
2013-02-17 00:11:00,38.3,35.9,30.27,East,90,0.0,2.0,91,0.00,,CLR,0.00,VWS V14.00,2013-02-17 08:11:00,
2013-02-17 00:16:00,38.5,36.1,30.27,East,90,0.0,2.0,91,0.00,,BKN055,0.00,VWS V14.00,2013-02-17 08:16:00,
2013-02-17 00:17:00,38.5,36.1,30.27,East,90,0.0,2.0,91,0.00,,CLR,0.00,VWS V14.00,2013-02-17 08:17:00,
2013-02-17 00:21:00,38.7,36.3,30.27,NE,45,0.0,2.0,91,0.00,,CLR,0.00,VWS V14.00,2013-02-17 08:21:00,
2013-02-17 00:22:00,38.7,36.3,30.27,WSW,248,0.0,0.0,91,0.00,,CLR,0.00,VWS V14.00,2013-02-17 08:22:00,
2013-02-17 00:26:00,38.8,36.4,30.27,WSW,248,0.0,0.0,91,0.00,,CLR,0.00,VWS V14.00,2013-02-17 08:26:00,
2013-02-17 00:27:00,38.8,36.4,30.27,WSW,248,0.0,0.0,91,0.00,,CLR,0.00,VWS V14.00,2013-02-17 08:27:00,
2013-02-17 00:31:00,38.8,36.4,30.27,ESE,112,0.0,0.9,91,0.00,,CLR,0.00,VWS V14.00,2013-02-17 08:31:00,
2013-02-17 00:32:00,38.8,36.4,30.27,ESE,112,0.0,0.9,91,0.00,,BKN050,0.00,VWS V14.00,2013-02-17 08:32:00,
2013-02-17 00:36:00,38.7,36.3,30.27,ESE,112,0.0,0.9,91,0.00,,BKN050,0.00,VWS V14.00,2013-02-17 08:36:00,
2013-02-17 00:37:00,38.7,36.3,30.27,ESE,112,0.0,0.9,91,0.00,,BKN050,0.00,VWS V14.00,2013-02-17 08:37:00,
2013-02-17 00:41:00,38.5,36.1,30.27,ESE,112,0.0,0.0,91,0.00,,BKN050,0.00,VWS V14.00,2013-02-17 08:41:00,
2013-02-17 00:42:00,38.5,36.1,30.27,ESE,112,0.0,0.0,91,0.00,,BKN050,0.00,VWS V14.00,2013-02-17 08:42:00,
2013-02-17 00:46:00,38.5,36.1,30.27,ESE,112,0.0,0.0,91,0.00,,BKN050,0.00,VWS V14.00,2013-02-17 08:46:00,
2013-02-17 00:47:00,38.5,36.1,30.27,ESE,112,0.0,0.0,91,0.00,,BKN050,0.00,VWS V14.00,2013-02-17 08:47:00,
2013-02-17 00:51:00,38.3,35.9,30.27,ESE,112,0.0,0.0,91,0.00,,OVC050,0.00,VWS V14.00,2013-02-17 08:51:00,
2013-02-17 00:52:00,38.3,35.9,30.27,ESE,112,0.0,0.0,91,0.00,,OVC050,0.00,VWS V14.00,2013-02-17 08:52:00,
2013-02-17 00:56:00,38.1,35.7,30.27,WSW,248,0.0,0.0,91,0.00,,OVC050,0.00,VWS V14.00,2013-02-17 08:56:00,
2013-02-17 00:57:00,38.1,35.7,30.27,ESE,112,0.0,0.0,91,0.00,,OVC050,0.00,VWS V14.00,2013-02-17 08:57:00,
2013-02-17 01:01:00,37.9,35.5,30.27,East,90,0.0,0.9,91,0.00,,OVC050,0.00,VWS V14.00,2013-02-17 09:01:00,
2013-02-17 01:02:00,37.8,35.4,30.27,East,90,0.0,0.9,91,0.00,,OVC050,0.00,VWS V14.00,2013-02-17 09:02:00,
2013-02-17 01:06:00,37.8,35.1,30.27,SE,135,0.0,0.9,90,0.00,,OVC050,0.00,VWS V14.00,2013-02-17 09:06:00,
2013-02-17 01:07:00,37.8,35.4,30.27,ESE,112,0.0,0.9,91,0.00,,OVC050,0.00,VWS V14.00,2013-02-17 09:07:00,
2013-02-17 01:11:00,37.8,35.4,30.27,East,90,0.0,0.9,91,0.00,,OVC050,0.00,VWS V14.00,2013-02-17 09:11:00,
2013-02-17 01:12:00,37.8,35.4,30.27,SE,135,0.0,0.9,91,0.00,,OVC050,0.00,VWS V14.00,2013-02-17 09:12:00,
2013-02-17 01:16:00,37.8,35.4,30.27,ESE,112,0.0,2.2,91,0.00,,OVC050,0.00,VWS V14.00,2013-02-17 09:16:00,
2013-02-17 01:17:00,37.8,35.4,30.27,ESE,112,0.0,2.2,91,0.00,,OVC050,0.00,VWS V14.00,2013-02-17 09:17:00,
2013-02-17 01:21:00,37.8,35.4,30.27,ESE,112,0.0,2.2,91,0.00,,OVC050,0.00,VWS V14.00,2013-02-17 09:21:00,
2013-02-17 01:22:00,37.8,35.4,30.27,ESE,112,0.0,2.2,91,0.00,,OVC050,0.00,VWS V14.00,2013-02-17 09:22:00,
2013-02-17 01:26:00,37.9,35.5,30.27,ESE,112,0.0,2.2,91,0.00,,OVC050,0.00,VWS V14.00,2013-02-17 09:26:00,
2013-02-17 01:27:00,37.9,35.5,30.27,ESE,112,0.0,2.2,91,0.00,,OVC050,0.00,VWS V14.00,2013-02-17 09:27:00,
2013-02-17 01:32:00,37.6,35.2,30.27,ESE,112,0.0,1.6,91,0.00,,SCT048,0.00,VWS V14.00,2013-02-17 09:32:00,
2013-02-17 01:37:00,37.6,35.2,30.27,ESE,112,0.0,1.6,91,0.00,,SCT048,0.00,VWS V14.00,2013-02-17 09:37:00,
2013-02-17 01:38:00,37.6,35.2,30.27,ESE,112,0.0,1.6,91,0.00,,SCT048,0.00,VWS V14.00,2013-02-17 09:38:00,
2013-02-17 01:42:00,37.4,35.0,30.27,ESE,112,0.0,0.0,91,0.00,,SCT048,0.00,VWS V14.00,2013-02-17 09:42:00,
2013-02-17 01:43:00,37.4,35.0,30.27,ENE,68,0.0,0.0,91,0.00,,SCT048,0.00,VWS V14.00,2013-02-17 09:43:00,
2013-02-17 01:47:00,37.4,35.0,30.27,West,270,0.0,0.0,91,0.00,,SCT048,0.00,VWS V14.00,2013-02-17 09:47:00,
2013-02-17 01:48:00,37.4,35.0,30.27,SSE,158,0.0,0.0,91,0.00,,CLR,0.00,VWS V14.00,2013-02-17 09:48:00,
2013-02-17 01:52:00,37.4,35.0,30.27,NE,45,0.0,0.0,91,0.00,,CLR,0.00,VWS V14.00,2013-02-17 09:52:00,
2013-02-17 01:53:00,37.4,35.0,30.27,East,90,0.0,0.0,91,0.00,,CLR,0.00,VWS V14.00,2013-02-17 09:53:00,
2013-02-17 01:57:00,37.6,35.2,30.27,East,90,0.0,0.0,91,0.00,,CLR,0.00,VWS V14.00,2013-02-17 09:57:00,
2013-02-17 01:58:00,37.6,35.2,30.27,East,90,0.0,0.0,91,0.00,,CLR,0.00,VWS V14.00,2013-02-17 09:58:00,
2013-02-17 02:02:00,37.6,35.2,30.30,West,270,0.0,0.0,91,0.00,,CLR,0.00,VWS V14.00,2013-02-17 10:02:00,
2013-02-17 02:03:00,37.6,35.2,30.30,ENE,68,0.0,0.0,91,0.00,,CLR,0.00,VWS V14.00,2013-02-17 10:03:00,
2013-02-17 02:07:00,37.8,35.4,30.30,WSW,248,0.0,0.0,91,0.00,,CLR,0.00,VWS V14.00,2013-02-17 10:07:00,
2013-02-17 02:08:00,37.8,35.4,30.30,SSE,158,0.0,0.0,91,0.00,,CLR,0.00,VWS V14.00,2013-02-17 10:08:00,
2013-02-17 02:12:00,37.9,35.5,30.30,East,90,0.0,0.0,91,0.00,,CLR,0.00,VWS V14.00,2013-02-17 10:12:00,
2013-02-17 02:13:00,37.9,35.5,30.30,East,90,0.0,0.0,91,0.00,,CLR,0.00,VWS V14.00,2013-02-17 10:13:00,
2013-02-17 02:17:00,37.9,35.5,30.30,ENE,68,0.0,0.9,91,0.00,,CLR,0.00,VWS V14.00,2013-02-17 10:17:00,
2013-02-17 02:18:00,37.9,35.5,30.30,ENE,68,0.0,0.9,91,0.00,,CLR,0.00,VWS V14.00,2013-02-17 10:18:00,
2013-02-17 02:22:00,37.8,35.4,30.30,ENE,68,0.0,0.9,91,0.00,,CLR,0.00,VWS V14.00,2013-02-17 10:22:00,
2013-02-17 02:23:00,37.8,35.4,30.30,East,90,0.0,0.9,91,0.00,,CLR,0.00,VWS V14.00,2013-02-17 10:23:00,
2013-02-17 02:27:00,37.6,35.2,30.30,East,90,0.0,0.9,91,0.00,,CLR,0.00,VWS V14.00,2013-02-17 10:27:00,
2013-02-17 02:28:00,37.6,35.2,30.30,East,90,0.0,0.9,91,0.00,,CLR,0.00,VWS V14.00,2013-02-17 10:28:00,
2013-02-17 02:32:00,37.4,35.0,30.30,East,90,1.6,1.6,91,0.00,,BKN049,0.00,VWS V14.00,2013-02-17 10:32:00,
2013-02-17 02:33:00,37.4,35.0,30.30,East,90,1.6,1.6,91,0.00,,BKN049,0.00,VWS V14.00,2013-02-17 10:33:00,
2013-02-17 02:37:00,36.9,34.5,30.30,East,90,2.9,2.9,91,0.00,,BKN049,0.00,VWS V14.00,2013-02-17 10:37:00,
2013-02-17 02:38:00,36.9,34.5,30.30,East,90,2.9,2.9,91,0.00,,BKN049,0.00,VWS V14.00,2013-02-17 10:38:00,
2013-02-17 02:42:00,36.7,34.3,30.30,East,90,0.0,2.9,91,0.00,,BKN049,0.00,VWS V14.00,2013-02-17 10:42:00,
2013-02-17 02:43:00,36.7,34.3,30.30,East,90,0.0,2.9,91,0.00,,BKN049,0.00,VWS V14.00,2013-02-17 10:43:00,
2013-02-17 02:47:00,36.9,34.8,30.30,East,90,0.0,2.9,92,0.00,,BKN049,0.00,VWS V14.00,2013-02-17 10:47:00,
2013-02-17 02:48:00,36.9,34.8,30.30,East,90,0.0,2.9,92,0.00,,SCT049,0.00,VWS V14.00,2013-02-17 10:48:00,
2013-02-17 02:52:00,36.9,34.8,30.30,East,90,0.0,2.9,92,0.00,,SCT049,0.00,VWS V14.00,2013-02-17 10:52:00,
2013-02-17 02:53:00,36.7,34.6,30.30,East,90,0.0,2.9,92,0.00,,SCT049,0.00,VWS V14.00,2013-02-17 10:53:00,
2013-02-17 02:57:00,36.5,34.4,30.30,East,90,0.0,1.3,92,0.00,,SCT049,0.00,VWS V14.00,2013-02-17 10:57:00,
2013-02-17 02:58:00,36.5,34.4,30.30,East,90,0.0,1.3,92,0.00,,SCT049,0.00,VWS V14.00,2013-02-17 10:58:00,
2013-02-17 03:02:00,36.5,34.4,30.30,East,90,1.1,1.3,92,0.00,,SCT049,0.00,VWS V14.00,2013-02-17 11:02:00,
2013-02-17 03:03:00,36.5,34.4,30.30,East,90,1.1,1.3,92,0.00,,SCT049,0.00,VWS V14.00,2013-02-17 11:03:00,
2013-02-17 03:07:00,36.7,34.6,30.30,SE,135,0.0,1.3,92,0.00,,SCT049,0.00,VWS V14.00,2013-02-17 11:07:00,
2013-02-17 03:08:00,36.7,34.6,30.30,SE,135,0.0,1.3,92,0.00,,SCT049,0.00,VWS V14.00,2013-02-17 11:08:00,
2013-02-17 03:12:00,36.7,34.6,30.30,SSW,202,0.0,1.3,92,0.00,,SCT049,0.00,VWS V14.00,2013-02-17 11:12:00,
2013-02-17 03:13:00,36.7,34.6,30.30,SE,135,0.0,1.1,92,0.00,,SCT049,0.00,VWS V14.00,2013-02-17 11:13:00,
2013-02-17 03:17:00,36.7,34.6,30.27,WSW,248,0.0,1.1,92,0.00,,SCT049,0.00,VWS V14.00,2013-02-17 11:17:00,
2013-02-17 03:18:00,36.7,34.8,30.27,WSW,248,0.0,1.1,93,0.00,,SCT049,0.00,VWS V14.00,2013-02-17 11:18:00,
2013-02-17 03:19:00,36.7,34.8,30.27,WSW,248,0.0,1.1,93,0.00,,SCT049,0.00,VWS V14.00,2013-02-17 11:19:00,
2013-02-17 03:23:00,36.7,34.8,30.27,WSW,248,0.0,0.0,93,0.00,,SCT049,0.00,VWS V14.00,2013-02-17 11:23:00,
2013-02-17 03:24:00,36.7,34.8,30.27,South,180,0.0,0.0,93,0.00,,SCT049,0.00,VWS V14.00,2013-02-17 11:24:00,
2013-02-17 03:28:00,36.7,34.8,30.27,WSW,248,0.0,0.0,93,0.00,,SCT049,0.00,VWS V14.00,2013-02-17 11:28:00,
2013-02-17 03:29:00,36.5,34.7,30.27,WSW,248,0.0,0.0,93,0.00,,SCT049,0.00,VWS V14.00,2013-02-17 11:29:00,
2013-02-17 03:33:00,36.5,34.7,30.27,WNW,292,0.0,0.0,93,0.00,,SCT049,0.00,VWS V14.00,2013-02-17 11:33:00,
2013-02-17 03:34:00,36.5,34.7,30.27,WNW,292,0.0,0.0,93,0.00,,SCT049,0.00,VWS V14.00,2013-02-17 11:34:00,
2013-02-17 03:38:00,36.5,34.7,30.27,SE,135,0.0,0.0,93,0.00,,SCT049,0.00,VWS V14.00,2013-02-17 11:38:00,
2013-02-17 03:39:00,36.5,34.7,30.27,SE,135,0.0,0.0,93,0.00,,SCT049,0.00,VWS V14.00,2013-02-17 11:39:00,
2013-02-17 03:43:00,36.1,34.3,30.27,ESE,112,0.0,1.3,93,0.00,,SCT049,0.00,VWS V14.00,2013-02-17 11:43:00,
2013-02-17 03:44:00,36.1,34.3,30.27,ESE,112,0.0,1.3,93,0.00,,SCT049,0.00,VWS V14.00,2013-02-17 11:44:00,
2013-02-17 03:48:00,36.0,34.1,30.27,East,90,0.0,1.3,93,0.00,,BKN049,0.00,VWS V14.00,2013-02-17 11:48:00,
2013-02-17 03:49:00,36.0,34.1,30.27,East,90,0.0,1.3,93,0.00,,BKN049,0.00,VWS V14.00,2013-02-17 11:49:00,
2013-02-17 03:53:00,35.8,34.0,30.27,SE,135,0.0,1.3,93,0.00,,BKN049,0.00,VWS V14.00,2013-02-17 11:53:00,
2013-02-17 03:54:00,35.8,34.0,30.27,SE,135,0.0,1.3,93,0.00,,BKN049,0.00,VWS V14.00,2013-02-17 11:54:00,
2013-02-17 03:58:00,35.8,34.0,30.27,SE,135,0.0,1.3,93,0.00,,BKN049,0.00,VWS V14.00,2013-02-17 11:58:00,
2013-02-17 03:59:00,35.8,34.0,30.27,East,90,0.0,1.3,93,0.00,,BKN049,0.00,VWS V14.00,2013-02-17 11:59:00,
2013-02-17 04:03:00,35.6,33.8,30.27,East,90,1.3,2.5,93,0.00,,BKN049,0.00,VWS V14.00,2013-02-17 12:03:00,
2013-02-17 04:04:00,35.6,33.8,30.27,East,90,1.3,2.5,93,0.00,,BKN049,0.00,VWS V14.00,2013-02-17 12:04:00,
2013-02-17 04:08:00,35.6,33.8,30.27,East,90,0.0,2.5,93,0.00,,BKN049,0.00,VWS V14.00,2013-02-17 12:08:00,
2013-02-17 04:09:00,35.6,33.8,30.27,East,90,0.0,2.5,93,0.00,,BKN049,0.00,VWS V14.00,2013-02-17 12:09:00,
2013-02-17 04:13:00,35.8,34.2,30.27,East,90,0.0,2.5,94,0.00,,BKN049,0.00,VWS V14.00,2013-02-17 12:13:00,
2013-02-17 04:14:00,35.8,34.2,30.27,East,90,0.0,2.5,94,0.00,,BKN049,0.00,VWS V14.00,2013-02-17 12:14:00,
2013-02-17 04:18:00,35.8,34.2,30.27,East,90,0.0,2.5,94,0.00,,BKN049,0.00,VWS V14.00,2013-02-17 12:18:00,
2013-02-17 04:19:00,35.8,34.2,30.27,East,90,0.0,1.6,94,0.00,,BKN049,0.00,VWS V14.00,2013-02-17 12:19:00,
2013-02-17 04:20:00,35.8,34.2,30.27,East,90,0.0,1.6,94,0.00,,BKN049,0.00,VWS V14.00,2013-02-17 12:20:00,
2013-02-17 04:23:00,35.8,34.2,30.27,East,90,0.0,0.0,94,0.00,,BKN049,0.00,VWS V14.00,2013-02-17 12:23:00,
2013-02-17 04:24:00,35.8,34.2,30.27,East,90,0.0,0.0,94,0.00,,BKN049,0.00,VWS V14.00,2013-02-17 12:24:00,
2013-02-17 04:25:00,35.8,34.2,30.27,East,90,0.0,0.0,94,0.00,,BKN049,0.00,VWS V14.00,2013-02-17 12:25:00,
2013-02-17 04:28:00,35.8,34.2,30.27,ESE,112,0.0,0.0,94,0.00,,BKN049,0.00,VWS V14.00,2013-02-17 12:28:00,
2013-02-17 04:29:00,35.8,34.2,30.27,ESE,112,0.0,0.0,94,0.00,,BKN049,0.00,VWS V14.00,2013-02-17 12:29:00,
2013-02-17 04:30:00,35.8,34.2,30.27,ESE,112,0.0,0.0,94,0.00,,BKN049,0.00,VWS V14.00,2013-02-17 12:30:00,
2013-02-17 04:33:00,35.8,34.2,30.27,SSW,202,0.0,0.0,94,0.00,,BKN060,0.00,VWS V14.00,2013-02-17 12:33:00,
2013-02-17 04:34:00,35.8,34.2,30.27,SSW,202,0.0,0.0,94,0.00,,BKN060,0.00,VWS V14.00,2013-02-17 12:34:00,
2013-02-17 04:35:00,35.8,34.2,30.27,SSW,202,0.0,0.0,94,0.00,,BKN060,0.00,VWS V14.00,2013-02-17 12:35:00,
2013-02-17 04:38:00,36.0,34.4,30.27,ESE,112,0.0,0.0,94,0.00,,BKN060,0.00,VWS V14.00,2013-02-17 12:38:00,
2013-02-17 04:39:00,36.0,34.4,30.27,ESE,112,0.0,0.0,94,0.00,,BKN060,0.00,VWS V14.00,2013-02-17 12:39:00,
2013-02-17 04:40:00,36.0,34.4,30.27,ESE,112,0.0,0.0,94,0.00,,BKN060,0.00,VWS V14.00,2013-02-17 12:40:00,
2013-02-17 04:43:00,36.0,34.4,30.27,East,90,1.6,1.6,94,0.00,,BKN060,0.00,VWS V14.00,2013-02-17 12:43:00,
2013-02-17 04:44:00,36.0,34.4,30.27,East,90,1.6,1.6,94,0.00,,BKN060,0.00,VWS V14.00,2013-02-17 12:44:00,
2013-02-17 04:45:00,36.0,34.4,30.27,East,90,0.0,1.6,94,0.00,,BKN060,0.00,VWS V14.00,2013-02-17 12:45:00,
2013-02-17 04:48:00,36.0,34.4,30.27,East,90,0.0,1.6,94,0.00,,OVC060,0.00,VWS V14.00,2013-02-17 12:48:00,
2013-02-17 04:49:00,36.0,34.4,30.27,East,90,0.0,1.6,94,0.00,,OVC060,0.00,VWS V14.00,2013-02-17 12:49:00,
2013-02-17 04:50:00,36.0,34.4,30.27,East,90,0.0,1.6,94,0.00,,OVC060,0.00,VWS V14.00,2013-02-17 12:50:00,
2013-02-17 04:53:00,36.1,34.6,30.27,East,90,0.0,1.6,94,0.00,,OVC060,0.00,VWS V14.00,2013-02-17 12:53:00,
2013-02-17 04:55:00,36.1,34.6,30.27,East,90,0.0,1.6,94,0.00,,OVC060,0.00,VWS V14.00,2013-02-17 12:55:00,
2013-02-17 04:58:00,36.1,34.6,30.27,East,90,0.0,1.6,94,0.00,,OVC060,0.00,VWS V14.00,2013-02-17 12:58:00,
2013-02-17 05:00:00,36.1,34.8,30.27,East,90,0.0,1.6,95,0.00,,OVC060,0.00,VWS V14.00,2013-02-17 13:00:00,
2013-02-17 05:03:00,36.1,34.8,30.27,East,90,0.0,0.0,95,0.00,,OVC060,0.00,VWS V14.00,2013-02-17 13:03:00,
2013-02-17 05:05:00,36.1,34.8,30.27,East,90,0.0,0.0,95,0.00,,OVC060,0.00,VWS V14.00,2013-02-17 13:05:00,
2013-02-17 05:08:00,36.1,34.8,30.27,East,90,0.0,0.0,95,0.00,,OVC060,0.00,VWS V14.00,2013-02-17 13:08:00,
2013-02-17 05:10:00,36.1,34.8,30.27,East,90,0.0,0.0,95,0.00,,OVC060,0.00,VWS V14.00,2013-02-17 13:10:00,
2013-02-17 05:13:00,36.1,34.8,30.27,East,90,0.0,0.0,95,0.00,,OVC060,0.00,VWS V14.00,2013-02-17 13:13:00,
2013-02-17 05:15:00,36.3,35.0,30.30,East,90,0.0,0.0,95,0.00,,OVC060,0.00,VWS V14.00,2013-02-17 13:15:00,
2013-02-17 05:18:00,36.3,35.0,30.30,East,90,0.0,0.0,95,0.00,,OVC060,0.00,VWS V14.00,2013-02-17 13:18:00,
2013-02-17 05:19:00,36.3,35.0,30.30,East,90,0.0,0.0,95,0.00,,OVC060,0.00,VWS V14.00,2013-02-17 13:19:00,
2013-02-17 05:20:00,36.3,35.0,30.30,East,90,0.0,0.0,95,0.00,,OVC060,0.00,VWS V14.00,2013-02-17 13:20:00,
2013-02-17 05:23:00,36.3,35.0,30.30,East,90,0.0,0.0,95,0.00,,OVC060,0.00,VWS V14.00,2013-02-17 13:23:00,
2013-02-17 05:24:00,36.3,35.0,30.30,East,90,0.0,0.0,95,0.00,,OVC060,0.00,VWS V14.00,2013-02-17 13:24:00,
2013-02-17 05:25:00,36.1,34.8,30.30,East,90,0.0,0.0,95,0.00,,OVC060,0.00,VWS V14.00,2013-02-17 13:25:00,
2013-02-17 05:28:00,36.1,34.8,30.30,East,90,0.0,0.0,95,0.00,,OVC060,0.00,VWS V14.00,2013-02-17 13:28:00,
2013-02-17 05:29:00,36.1,34.8,30.30,East,90,0.0,0.0,95,0.00,,OVC060,0.00,VWS V14.00,2013-02-17 13:29:00,
2013-02-17 05:30:00,36.1,34.8,30.27,East,90,0.0,0.0,95,0.00,,OVC060,0.00,VWS V14.00,2013-02-17 13:30:00,
2013-02-17 05:33:00,36.1,34.6,30.27,East,90,0.0,0.0,94,0.00,,OVC043,0.00,VWS V14.00,2013-02-17 13:33:00,
2013-02-17 05:34:00,36.0,34.4,30.27,East,90,0.0,0.0,94,0.00,,OVC043,0.00,VWS V14.00,2013-02-17 13:34:00,
2013-02-17 05:35:00,36.0,34.4,30.27,East,90,0.0,0.0,94,0.00,,OVC043,0.00,VWS V14.00,2013-02-17 13:35:00,
2013-02-17 05:38:00,35.8,34.2,30.27,East,90,0.0,0.0,94,0.00,,OVC043,0.00,VWS V14.00,2013-02-17 13:38:00,
2013-02-17 05:39:00,35.8,34.2,30.27,ESE,112,2.0,2.0,94,0.00,,OVC043,0.00,VWS V14.00,2013-02-17 13:39:00,
2013-02-17 05:40:00,35.8,34.2,30.27,ESE,112,0.0,2.0,94,0.00,,OVC043,0.00,VWS V14.00,2013-02-17 13:40:00,
2013-02-17 05:43:00,35.8,34.2,30.27,ESE,112,0.0,2.0,94,0.00,,OVC043,0.00,VWS V14.00,2013-02-17 13:43:00,
2013-02-17 05:44:00,35.8,34.2,30.27,ESE,112,0.0,2.0,94,0.00,,OVC043,0.00,VWS V14.00,2013-02-17 13:44:00,
2013-02-17 05:45:00,35.8,34.2,30.27,SE,135,0.0,2.0,94,0.00,,OVC043,0.00,VWS V14.00,2013-02-17 13:45:00,
2013-02-17 05:48:00,35.8,34.2,30.27,SE,135,0.0,2.0,94,0.00,,OVC050,0.00,VWS V14.00,2013-02-17 13:48:00,
2013-02-17 05:49:00,35.8,34.2,30.27,SE,135,0.0,2.0,94,0.00,,OVC050,0.00,VWS V14.00,2013-02-17 13:49:00,
2013-02-17 05:50:00,35.8,34.2,30.27,SE,135,0.0,2.0,94,0.00,,OVC050,0.00,VWS V14.00,2013-02-17 13:50:00,
2013-02-17 05:53:00,35.8,34.2,30.27,SE,135,0.0,0.0,94,0.00,,OVC050,0.00,VWS V14.00,2013-02-17 13:53:00,
2013-02-17 05:54:00,35.8,34.2,30.27,SE,135,0.0,0.0,94,0.00,,OVC050,0.00,VWS V14.00,2013-02-17 13:54:00,
2013-02-17 05:55:00,35.8,34.2,30.27,SE,135,0.0,0.0,94,0.00,,OVC050,0.00,VWS V14.00,2013-02-17 13:55:00,
2013-02-17 05:58:00,36.0,34.4,30.27,SE,135,0.0,0.0,94,0.00,,OVC050,0.00,VWS V14.00,2013-02-17 13:58:00,
2013-02-17 05:59:00,36.0,34.4,30.27,SE,135,0.0,0.0,94,0.00,,OVC050,0.00,VWS V14.00,2013-02-17 13:59:00,
2013-02-17 06:00:00,36.0,34.4,30.27,NNW,338,0.0,0.0,94,0.00,,OVC050,0.00,VWS V14.00,2013-02-17 14:00:00,
2013-02-17 06:01:00,36.0,34.4,30.27,NNW,338,0.0,0.0,94,0.00,,OVC050,0.00,VWS V14.00,2013-02-17 14:01:00,
2013-02-17 06:03:00,36.0,34.4,30.27,NNW,338,0.0,0.0,94,0.00,,OVC050,0.00,VWS V14.00,2013-02-17 14:03:00,
2013-02-17 06:04:00,36.0,34.4,30.27,NNW,338,0.0,0.0,94,0.00,,OVC050,0.00,VWS V14.00,2013-02-17 14:04:00,
2013-02-17 06:05:00,36.0,34.4,30.27,NNW,338,0.0,0.0,94,0.00,,OVC050,0.00,VWS V14.00,2013-02-17 14:05:00,
2013-02-17 06:06:00,36.0,34.4,30.27,NNW,338,0.0,0.0,94,0.00,,OVC050,0.00,VWS V14.00,2013-02-17 14:06:00,
2013-02-17 06:08:00,36.0,34.4,30.27,East,90,0.0,0.0,94,0.00,,OVC050,0.00,VWS V14.00,2013-02-17 14:08:00,
2013-02-17 06:09:00,36.0,34.4,30.27,East,90,0.0,0.0,94,0.00,,OVC050,0.00,VWS V14.00,2013-02-17 14:09:00,
2013-02-17 06:10:00,36.0,34.4,30.27,East,90,0.0,0.0,94,0.00,,OVC050,0.00,VWS V14.00,2013-02-17 14:10:00,
2013-02-17 06:11:00,36.0,34.4,30.27,East,90,0.0,0.0,94,0.00,,OVC050,0.00,VWS V14.00,2013-02-17 14:11:00,
2013-02-17 06:13:00,36.0,34.4,30.27,East,90,0.0,0.0,94,0.00,,OVC050,0.00,VWS V14.00,2013-02-17 14:13:00,
2013-02-17 06:14:00,36.0,34.4,30.30,East,90,0.0,0.0,94,0.00,,OVC050,0.00,VWS V14.00,2013-02-17 14:14:00,
2013-02-17 06:15:00,36.0,34.4,30.30,East,90,0.0,0.0,94,0.00,,OVC050,0.00,VWS V14.00,2013-02-17 14:15:00,
2013-02-17 06:16:00,36.0,34.4,30.30,East,90,0.0,0.0,94,0.00,,OVC050,0.00,VWS V14.00,2013-02-17 14:16:00,
2013-02-17 06:18:00,36.0,34.4,30.30,East,90,0.0,0.0,94,0.00,,OVC050,0.00,VWS V14.00,2013-02-17 14:18:00,
2013-02-17 06:19:00,36.0,34.4,30.30,East,90,0.0,0.0,94,0.00,,OVC050,0.00,VWS V14.00,2013-02-17 14:19:00,
2013-02-17 06:20:00,36.0,34.4,30.30,East,90,0.0,0.0,94,0.00,,OVC050,0.00,VWS V14.00,2013-02-17 14:20:00,
2013-02-17 06:21:00,36.0,34.4,30.30,East,90,0.0,0.0,94,0.00,,OVC050,0.00,VWS V14.00,2013-02-17 14:21:00,
2013-02-17 06:23:00,36.1,34.6,30.30,East,90,0.0,0.0,94,0.00,,OVC050,0.00,VWS V14.00,2013-02-17 14:23:00,
2013-02-17 06:24:00,36.1,34.6,30.30,East,90,0.0,0.0,94,0.00,,OVC050,0.00,VWS V14.00,2013-02-17 14:24:00,
2013-02-17 06:25:00,36.1,34.6,30.30,East,90,0.0,0.0,94,0.00,,OVC050,0.00,VWS V14.00,2013-02-17 14:25:00,
2013-02-17 06:26:00,36.1,34.6,30.30,East,90,0.0,0.0,94,0.00,,OVC050,0.00,VWS V14.00,2013-02-17 14:26:00,
2013-02-17 06:28:00,36.1,34.6,30.30,East,90,0.0,0.0,94,0.00,,OVC050,0.00,VWS V14.00,2013-02-17 14:28:00,
2013-02-17 06:29:00,36.1,34.6,30.30,East,90,0.0,0.0,94,0.00,,OVC050,0.00,VWS V14.00,2013-02-17 14:29:00,
2013-02-17 06:30:00,36.1,34.6,30.27,East,90,0.0,0.0,94,0.00,,OVC050,0.00,VWS V14.00,2013-02-17 14:30:00,
2013-02-17 06:31:00,36.1,34.6,30.27,East,90,0.0,0.0,94,0.00,,OVC050,0.00,VWS V14.00,2013-02-17 14:31:00,
2013-02-17 06:33:00,36.1,34.6,30.27,East,90,0.0,0.0,94,0.00,,OVC060,0.00,VWS V14.00,2013-02-17 14:33:00,
2013-02-17 06:34:00,36.1,34.6,30.27,ENE,68,0.0,0.0,94,0.00,,OVC060,0.00,VWS V14.00,2013-02-17 14:34:00,
2013-02-17 06:35:00,36.1,34.6,30.27,ENE,68,0.0,0.0,94,0.00,,OVC060,0.00,VWS V14.00,2013-02-17 14:35:00,
2013-02-17 06:36:00,36.1,34.6,30.27,ENE,68,0.0,0.0,94,0.00,,OVC060,0.00,VWS V14.00,2013-02-17 14:36:00,
2013-02-17 06:38:00,36.1,34.6,30.27,ENE,68,0.0,0.0,94,0.00,,OVC060,0.00,VWS V14.00,2013-02-17 14:38:00,
2013-02-17 06:40:00,36.1,34.6,30.27,ENE,68,0.0,0.0,94,0.00,,OVC060,0.00,VWS V14.00,2013-02-17 14:40:00,
2013-02-17 06:41:00,36.1,34.6,30.27,ENE,68,0.0,0.0,94,0.00,,OVC060,0.00,VWS V14.00,2013-02-17 14:41:00,
2013-02-17 06:43:00,36.1,34.6,30.27,ENE,68,0.0,0.0,94,0.00,,OVC060,0.00,VWS V14.00,2013-02-17 14:43:00,
2013-02-17 06:45:00,36.1,34.6,30.27,ENE,68,0.0,0.0,94,0.00,,OVC060,0.00,VWS V14.00,2013-02-17 14:45:00,
2013-02-17 06:46:00,36.1,34.6,30.27,ENE,68,0.0,0.0,94,0.00,,OVC060,0.00,VWS V14.00,2013-02-17 14:46:00,
2013-02-17 06:49:00,36.3,34.8,30.27,ENE,68,0.0,0.0,94,0.00,,OVC060,0.00,VWS V14.00,2013-02-17 14:49:00,
2013-02-17 06:50:00,36.3,34.8,30.27,ENE,68,0.0,0.0,94,0.00,,OVC060,0.00,VWS V14.00,2013-02-17 14:50:00,
2013-02-17 06:51:00,36.3,34.8,30.27,ENE,68,0.0,0.0,94,0.00,,OVC060,0.00,VWS V14.00,2013-02-17 14:51:00,
2013-02-17 06:54:00,36.5,35.2,30.27,ENE,68,0.0,0.0,95,0.00,,OVC060,0.00,VWS V14.00,2013-02-17 14:54:00,
2013-02-17 06:55:00,36.5,35.2,30.27,ENE,68,0.0,0.0,95,0.00,,OVC060,0.00,VWS V14.00,2013-02-17 14:55:00,
2013-02-17 06:56:00,36.5,35.2,30.27,ENE,68,0.0,0.0,95,0.00,,OVC060,0.00,VWS V14.00,2013-02-17 14:56:00,
2013-02-17 06:59:00,36.3,34.8,30.27,WNW,292,0.0,0.0,94,0.00,,OVC060,0.00,VWS V14.00,2013-02-17 14:59:00,
2013-02-17 07:00:00,36.3,34.8,30.27,WNW,292,0.0,0.0,94,0.00,,OVC060,0.00,VWS V14.00,2013-02-17 15:00:00,
2013-02-17 07:01:00,36.3,34.8,30.27,WNW,292,0.0,0.0,94,0.00,,OVC060,0.00,VWS V14.00,2013-02-17 15:01:00,
2013-02-17 07:04:00,36.3,34.8,30.27,WSW,248,0.0,0.0,94,0.00,,OVC060,0.00,VWS V14.00,2013-02-17 15:04:00,
2013-02-17 07:05:00,36.3,34.8,30.27,WSW,248,0.0,0.0,94,0.00,,OVC060,0.00,VWS V14.00,2013-02-17 15:05:00,
2013-02-17 07:06:00,36.1,34.6,30.27,WSW,248,0.0,0.0,94,0.00,,OVC060,0.00,VWS V14.00,2013-02-17 15:06:00,
2013-02-17 07:09:00,36.1,34.6,30.27,West,270,2.0,2.0,94,0.00,,OVC060,0.00,VWS V14.00,2013-02-17 15:09:00,
2013-02-17 07:10:00,36.1,34.6,30.27,SE,135,0.0,2.0,94,0.00,,OVC060,0.00,VWS V14.00,2013-02-17 15:10:00,
2013-02-17 07:11:00,36.1,34.6,30.27,SE,135,0.0,2.0,94,0.00,,OVC060,0.00,VWS V14.00,2013-02-17 15:11:00,
2013-02-17 07:14:00,36.1,34.6,30.27,ESE,112,0.0,2.0,94,0.00,,OVC060,0.00,VWS V14.00,2013-02-17 15:14:00,
2013-02-17 07:15:00,36.1,34.6,30.27,ESE,112,0.0,2.0,94,0.00,,OVC060,0.00,VWS V14.00,2013-02-17 15:15:00,
2013-02-17 07:16:00,36.1,34.6,30.27,SE,135,0.0,2.0,94,0.00,,OVC060,0.00,VWS V14.00,2013-02-17 15:16:00,
2013-02-17 07:17:00,36.1,34.6,30.27,SE,135,0.0,2.0,94,0.00,,OVC060,0.00,VWS V14.00,2013-02-17 15:17:00,
2013-02-17 07:19:00,36.1,34.6,30.27,ESE,112,0.0,2.0,94,0.00,,OVC060,0.00,VWS V14.00,2013-02-17 15:19:00,
2013-02-17 07:20:00,36.1,34.8,30.27,ESE,112,0.0,2.0,95,0.00,,OVC060,0.00,VWS V14.00,2013-02-17 15:20:00,
2013-02-17 07:21:00,36.1,34.8,30.27,ESE,112,0.0,2.0,95,0.00,,OVC060,0.00,VWS V14.00,2013-02-17 15:21:00,
2013-02-17 07:22:00,36.1,34.8,30.27,ESE,112,0.0,2.0,95,0.00,,OVC060,0.00,VWS V14.00,2013-02-17 15:22:00,
2013-02-17 07:24:00,36.3,35.0,30.27,ESE,112,0.0,2.0,95,0.00,,OVC060,0.00,VWS V14.00,2013-02-17 15:24:00,
2013-02-17 07:25:00,36.3,35.0,30.27,ESE,112,0.0,2.0,95,0.00,,OVC060,0.00,VWS V14.00,2013-02-17 15:25:00,
2013-02-17 07:26:00,36.3,35.0,30.27,ESE,112,0.0,2.0,95,0.00,,OVC060,0.00,VWS V14.00,2013-02-17 15:26:00,
2013-02-17 07:27:00,36.3,35.0,30.27,ESE,112,0.0,2.0,95,0.00,,OVC060,0.00,VWS V14.00,2013-02-17 15:27:00,
2013-02-17 07:29:00,36.3,35.0,30.27,ESE,112,0.0,0.0,95,0.00,,OVC060,0.00,VWS V14.00,2013-02-17 15:29:00,
2013-02-17 07:30:00,36.5,35.2,30.27,ESE,112,0.0,0.0,95,0.00,,OVC060,0.00,VWS V14.00,2013-02-17 15:30:00,
2013-02-17 07:31:00,36.5,35.2,30.27,ESE,112,0.0,0.0,95,0.00,,OVC060,0.00,VWS V14.00,2013-02-17 15:31:00,
2013-02-17 07:32:00,36.5,35.2,30.27,ESE,112,0.0,0.0,95,0.00,,OVC060,0.00,VWS V14.00,2013-02-17 15:32:00,
2013-02-17 07:34:00,36.5,35.2,30.27,ESE,112,0.0,0.0,95,0.00,,OVC060,0.00,VWS V14.00,2013-02-17 15:34:00,
2013-02-17 07:35:00,36.5,35.2,30.27,East,90,0.0,1.1,95,0.00,,OVC060,0.00,VWS V14.00,2013-02-17 15:35:00,
2013-02-17 07:36:00,36.5,35.2,30.27,East,90,0.0,1.1,95,0.00,,OVC060,0.00,VWS V14.00,2013-02-17 15:36:00,
2013-02-17 07:37:00,36.5,35.2,30.27,East,90,0.0,1.1,95,0.00,,OVC060,0.00,VWS V14.00,2013-02-17 15:37:00,
2013-02-17 07:39:00,36.5,35.2,30.27,ESE,112,0.0,1.1,95,0.00,,OVC060,0.00,VWS V14.00,2013-02-17 15:39:00,
2013-02-17 07:40:00,36.5,35.2,30.27,ESE,112,0.0,1.1,95,0.00,,OVC060,0.00,VWS V14.00,2013-02-17 15:40:00,
2013-02-17 07:41:00,36.7,35.4,30.27,ESE,112,0.0,1.1,95,0.00,,OVC060,0.00,VWS V14.00,2013-02-17 15:41:00,
2013-02-17 07:42:00,36.7,35.4,30.27,ESE,112,0.0,1.1,95,0.00,,OVC060,0.00,VWS V14.00,2013-02-17 15:42:00,
2013-02-17 07:44:00,36.7,35.4,30.27,ESE,112,0.0,1.1,95,0.00,,OVC060,0.00,VWS V14.00,2013-02-17 15:44:00,
2013-02-17 07:45:00,36.9,35.6,30.27,ESE,112,0.0,1.1,95,0.00,,OVC060,0.00,VWS V14.00,2013-02-17 15:45:00,
2013-02-17 07:46:00,36.9,35.6,30.27,ESE,112,0.0,1.1,95,0.00,,OVC060,0.00,VWS V14.00,2013-02-17 15:46:00,
2013-02-17 07:47:00,36.9,35.6,30.27,East,90,0.0,1.1,95,0.00,,OVC060,0.00,VWS V14.00,2013-02-17 15:47:00,
2013-02-17 07:49:00,37.0,35.7,30.27,SSW,202,0.0,1.1,95,0.00,,OVC029,0.00,VWS V14.00,2013-02-17 15:49:00,
2013-02-17 07:50:00,37.0,35.7,30.27,SSW,202,0.0,1.1,95,0.00,,OVC029,0.00,VWS V14.00,2013-02-17 15:50:00,
2013-02-17 07:51:00,37.0,35.7,30.27,SSW,202,0.0,1.1,95,0.00,,OVC029,0.00,VWS V14.00,2013-02-17 15:51:00,
2013-02-17 07:52:00,37.0,35.7,30.27,NNE,22,0.0,1.1,95,0.00,,OVC029,0.00,VWS V14.00,2013-02-17 15:52:00,
2013-02-17 07:54:00,37.2,35.9,30.27,ENE,68,0.0,1.1,95,0.00,,OVC029,0.00,VWS V14.00,2013-02-17 15:54:00,
2013-02-17 07:55:00,37.4,36.1,30.27,ENE,68,0.0,0.0,95,0.00,,OVC029,0.00,VWS V14.00,2013-02-17 15:55:00,
2013-02-17 07:56:00,37.4,36.1,30.27,ENE,68,0.0,0.0,95,0.00,,OVC029,0.00,VWS V14.00,2013-02-17 15:56:00,
2013-02-17 07:57:00,37.4,36.1,30.27,ENE,68,0.0,0.0,95,0.00,,OVC029,0.00,VWS V14.00,2013-02-17 15:57:00,
2013-02-17 07:59:00,37.2,35.9,30.27,ENE,68,0.0,0.0,95,0.00,,OVC029,0.00,VWS V14.00,2013-02-17 15:59:00,
2013-02-17 08:00:00,37.2,35.9,30.27,ENE,68,0.0,0.0,95,0.00,,OVC029,0.00,VWS V14.00,2013-02-17 16:00:00,
2013-02-17 08:01:00,37.2,35.9,30.27,ENE,68,0.0,0.0,95,0.00,,OVC029,0.00,VWS V14.00,2013-02-17 16:01:00,
2013-02-17 08:02:00,37.2,35.9,30.27,West,270,0.0,0.0,95,0.00,,OVC029,0.00,VWS V14.00,2013-02-17 16:02:00,
2013-02-17 08:04:00,37.0,35.7,30.27,WNW,292,0.0,0.0,95,0.00,,OVC029,0.00,VWS V14.00,2013-02-17 16:04:00,
2013-02-17 08:05:00,37.0,35.7,30.27,WNW,292,0.0,0.0,95,0.00,,OVC029,0.00,VWS V14.00,2013-02-17 16:05:00,
2013-02-17 08:06:00,37.0,35.7,30.27,WNW,292,0.0,0.0,95,0.00,,OVC029,0.00,VWS V14.00,2013-02-17 16:06:00,
2013-02-17 08:07:00,37.0,35.7,30.27,WNW,292,0.0,0.0,95,0.00,,OVC029,0.00,VWS V14.00,2013-02-17 16:07:00,
2013-02-17 08:09:00,37.0,35.7,30.27,WNW,292,0.0,0.0,95,0.00,,OVC029,0.00,VWS V14.00,2013-02-17 16:09:00,
2013-02-17 08:11:00,37.0,35.7,30.27,SSE,158,0.0,0.0,95,0.00,,OVC029,0.00,VWS V14.00,2013-02-17 16:11:00,
2013-02-17 08:12:00,37.0,35.7,30.27,WNW,292,0.0,0.0,95,0.00,,OVC029,0.00,VWS V14.00,2013-02-17 16:12:00,
2013-02-17 08:14:00,37.0,35.7,30.27,WNW,292,0.0,0.0,95,0.00,,OVC029,0.00,VWS V14.00,2013-02-17 16:14:00,
2013-02-17 08:16:00,37.0,35.7,30.30,SSE,158,0.0,0.0,95,0.00,,OVC029,0.00,VWS V14.00,2013-02-17 16:16:00,
2013-02-17 08:17:00,37.0,35.7,30.30,WNW,292,0.0,0.0,95,0.00,,OVC029,0.00,VWS V14.00,2013-02-17 16:17:00,
2013-02-17 08:19:00,37.2,35.9,30.30,WNW,292,0.0,0.0,95,0.00,,OVC029,0.00,VWS V14.00,2013-02-17 16:19:00,
2013-02-17 08:21:00,37.2,35.9,30.30,West,270,0.0,0.0,95,0.00,,OVC029,0.00,VWS V14.00,2013-02-17 16:21:00,
2013-02-17 08:22:00,37.2,35.9,30.30,West,270,0.0,0.0,95,0.00,,OVC029,0.00,VWS V14.00,2013-02-17 16:22:00,
2013-02-17 08:24:00,37.2,35.9,30.30,West,270,0.0,0.0,95,0.00,,OVC029,0.00,VWS V14.00,2013-02-17 16:24:00,
2013-02-17 08:26:00,37.4,36.1,30.30,WSW,248,0.0,0.0,95,0.00,,OVC029,0.00,VWS V14.00,2013-02-17 16:26:00,
2013-02-17 08:28:00,37.4,36.1,30.30,WSW,248,0.0,0.0,95,0.00,,OVC029,0.00,VWS V14.00,2013-02-17 16:28:00,
2013-02-17 08:29:00,37.4,36.1,30.30,WSW,248,0.0,0.0,95,0.00,,OVC029,0.00,VWS V14.00,2013-02-17 16:29:00,
2013-02-17 08:31:00,37.4,36.1,30.30,West,270,0.0,0.0,95,0.00,,OVC029,0.00,VWS V14.00,2013-02-17 16:31:00,
2013-02-17 08:33:00,37.4,36.1,30.30,West,270,0.0,0.0,95,0.00,,OVC055,0.00,VWS V14.00,2013-02-17 16:33:00,
2013-02-17 08:34:00,37.6,36.3,30.30,West,270,0.0,0.0,95,0.00,,OVC055,0.00,VWS V14.00,2013-02-17 16:34:00,
2013-02-17 08:36:00,37.6,36.3,30.30,West,270,0.0,0.0,95,0.00,,OVC055,0.00,VWS V14.00,2013-02-17 16:36:00,
2013-02-17 08:38:00,37.6,36.3,30.30,West,270,0.0,0.0,95,0.00,,OVC055,0.00,VWS V14.00,2013-02-17 16:38:00,
2013-02-17 08:39:00,37.8,36.5,30.30,West,270,0.0,0.0,95,0.00,,OVC055,0.00,VWS V14.00,2013-02-17 16:39:00,
2013-02-17 08:41:00,37.8,36.5,30.30,West,270,0.0,0.0,95,0.00,,OVC055,0.00,VWS V14.00,2013-02-17 16:41:00,
2013-02-17 08:43:00,37.8,36.5,30.30,West,270,0.0,0.0,95,0.00,,OVC055,0.00,VWS V14.00,2013-02-17 16:43:00,
2013-02-17 08:44:00,37.8,36.5,30.30,West,270,0.0,0.0,95,0.00,,OVC055,0.00,VWS V14.00,2013-02-17 16:44:00,
2013-02-17 08:46:00,37.9,36.4,30.30,West,270,0.0,0.0,94,0.00,,OVC055,0.00,VWS V14.00,2013-02-17 16:46:00,
2013-02-17 08:47:00,37.9,36.4,30.30,West,270,0.0,0.0,94,0.00,,OVC055,0.00,VWS V14.00,2013-02-17 16:47:00,
2013-02-17 08:48:00,37.9,36.4,30.30,West,270,0.0,0.0,94,0.00,,OVC055,0.00,VWS V14.00,2013-02-17 16:48:00,
2013-02-17 08:49:00,37.9,36.6,30.30,West,270,0.0,0.0,95,0.00,,OVC055,0.00,VWS V14.00,2013-02-17 16:49:00,
2013-02-17 08:51:00,38.1,36.8,30.30,West,270,0.0,0.0,95,0.00,,OVC055,0.00,VWS V14.00,2013-02-17 16:51:00,
2013-02-17 08:52:00,38.1,36.8,30.30,West,270,0.0,0.0,95,0.00,,OVC055,0.00,VWS V14.00,2013-02-17 16:52:00,
2013-02-17 08:53:00,38.1,36.8,30.30,WNW,292,0.0,0.0,95,0.00,,OVC055,0.00,VWS V14.00,2013-02-17 16:53:00,
2013-02-17 08:54:00,38.1,36.8,30.30,WNW,292,0.0,0.0,95,0.00,,OVC055,0.00,VWS V14.00,2013-02-17 16:54:00,
2013-02-17 08:56:00,38.3,36.7,30.30,WNW,292,0.0,0.0,94,0.00,,OVC055,0.00,VWS V14.00,2013-02-17 16:56:00,
2013-02-17 08:57:00,38.3,36.7,30.30,WNW,292,0.0,0.0,94,0.00,,OVC055,0.00,VWS V14.00,2013-02-17 16:57:00,
2013-02-17 08:58:00,38.3,36.7,30.30,WNW,292,0.0,0.0,94,0.00,,OVC055,0.00,VWS V14.00,2013-02-17 16:58:00,
2013-02-17 09:00:00,38.5,36.9,30.30,WNW,292,0.0,0.0,94,0.00,,OVC055,0.00,VWS V14.00,2013-02-17 17:00:00,
2013-02-17 09:01:00,38.5,36.9,30.30,WNW,292,0.0,0.0,94,0.00,,OVC055,0.00,VWS V14.00,2013-02-17 17:01:00,
2013-02-17 09:02:00,38.5,36.9,30.30,WNW,292,0.0,0.0,94,0.00,,OVC055,0.00,VWS V14.00,2013-02-17 17:02:00,
2013-02-17 09:03:00,38.5,36.9,30.30,WNW,292,0.0,0.0,94,0.00,,OVC055,0.00,VWS V14.00,2013-02-17 17:03:00,
2013-02-17 09:05:00,38.5,36.9,30.30,WNW,292,0.0,0.0,94,0.00,,OVC055,0.00,VWS V14.00,2013-02-17 17:05:00,
2013-02-17 09:06:00,38.5,36.9,30.30,WNW,292,0.0,0.0,94,0.00,,OVC055,0.00,VWS V14.00,2013-02-17 17:06:00,
2013-02-17 09:07:00,38.5,36.9,30.30,WNW,292,0.0,0.0,94,0.00,,OVC055,0.00,VWS V14.00,2013-02-17 17:07:00,
2013-02-17 09:08:00,38.5,36.9,30.30,WNW,292,0.0,0.0,94,0.00,,OVC055,0.00,VWS V14.00,2013-02-17 17:08:00,
2013-02-17 09:10:00,38.5,36.9,30.30,WNW,292,0.0,0.0,94,0.00,,OVC055,0.00,VWS V14.00,2013-02-17 17:10:00,
2013-02-17 09:11:00,38.7,37.1,30.30,West,270,0.0,0.0,94,0.00,,OVC055,0.00,VWS V14.00,2013-02-17 17:11:00,
2013-02-17 09:12:00,38.7,37.1,30.30,West,270,0.0,0.0,94,0.00,,OVC055,0.00,VWS V14.00,2013-02-17 17:12:00,
2013-02-17 09:13:00,38.7,37.1,30.30,West,270,0.0,0.0,94,0.00,,OVC055,0.00,VWS V14.00,2013-02-17 17:13:00,
2013-02-17 09:15:00,38.7,37.1,30.30,West,270,0.0,0.0,94,0.00,,OVC055,0.00,VWS V14.00,2013-02-17 17:15:00,
2013-02-17 09:16:00,38.8,37.3,30.30,WNW,292,0.0,0.0,94,0.00,,OVC055,0.00,VWS V14.00,2013-02-17 17:16:00,
2013-02-17 09:17:00,38.8,37.3,30.30,WNW,292,0.0,0.0,94,0.00,,OVC055,0.00,VWS V14.00,2013-02-17 17:17:00,
2013-02-17 09:18:00,38.8,37.3,30.30,WNW,292,0.0,0.0,94,0.00,,OVC055,0.00,VWS V14.00,2013-02-17 17:18:00,
2013-02-17 09:20:00,38.8,37.3,30.30,WNW,292,0.0,0.0,94,0.00,,OVC055,0.00,VWS V14.00,2013-02-17 17:20:00,
2013-02-17 09:22:00,38.8,37.3,30.30,WNW,292,0.0,0.0,94,0.00,,OVC055,0.00,VWS V14.00,2013-02-17 17:22:00,
2013-02-17 09:23:00,38.8,37.3,30.30,WNW,292,0.0,0.0,94,0.00,,OVC055,0.00,VWS V14.00,2013-02-17 17:23:00,
2013-02-17 09:25:00,38.8,37.3,30.30,WNW,292,0.0,0.0,94,0.00,,OVC055,0.00,VWS V14.00,2013-02-17 17:25:00,
2013-02-17 09:27:00,38.8,37.3,30.30,WNW,292,0.0,0.0,94,0.00,,OVC055,0.00,VWS V14.00,2013-02-17 17:27:00,
2013-02-17 09:28:00,39.0,37.4,30.30,WNW,292,0.0,0.0,94,0.00,,OVC055,0.00,VWS V14.00,2013-02-17 17:28:00,
2013-02-17 09:30:00,39.0,37.4,30.30,WNW,292,0.0,0.0,94,0.00,,OVC055,0.00,VWS V14.00,2013-02-17 17:30:00,
2013-02-17 09:32:00,39.2,37.3,30.27,WNW,292,0.0,0.0,93,0.00,,OVC055,0.00,VWS V14.00,2013-02-17 17:32:00,
2013-02-17 09:33:00,39.2,37.3,30.27,WNW,292,0.0,0.0,93,0.00,,OVC055,0.00,VWS V14.00,2013-02-17 17:33:00,
2013-02-17 09:35:00,39.2,37.3,30.27,WNW,292,0.0,0.0,93,0.00,,OVC055,0.00,VWS V14.00,2013-02-17 17:35:00,
2013-02-17 09:37:00,39.4,37.5,30.27,WNW,292,0.0,0.0,93,0.00,,OVC055,0.00,VWS V14.00,2013-02-17 17:37:00,
2013-02-17 09:38:00,39.4,37.5,30.27,WNW,292,0.0,0.0,93,0.00,,OVC055,0.00,VWS V14.00,2013-02-17 17:38:00,
2013-02-17 09:40:00,39.4,37.5,30.27,WNW,292,0.0,0.0,93,0.00,,OVC055,0.00,VWS V14.00,2013-02-17 17:40:00,
2013-02-17 09:42:00,39.4,37.5,30.27,WNW,292,0.0,0.0,93,0.00,,OVC055,0.00,VWS V14.00,2013-02-17 17:42:00,
2013-02-17 09:43:00,39.7,37.9,30.27,WNW,292,0.0,0.0,93,0.00,,OVC055,0.00,VWS V14.00,2013-02-17 17:43:00,
2013-02-17 09:45:00,39.7,37.9,30.27,WNW,292,0.0,0.0,93,0.00,,OVC055,0.00,VWS V14.00,2013-02-17 17:45:00,
2013-02-17 09:47:00,39.7,37.9,30.30,West,270,0.0,0.0,93,0.00,,OVC055,0.00,VWS V14.00,2013-02-17 17:47:00,
2013-02-17 09:48:00,39.9,38.1,30.30,NE,45,0.0,0.0,93,0.00,,OVC060,0.00,VWS V14.00,2013-02-17 17:48:00,
2013-02-17 09:50:00,39.9,38.1,30.30,East,90,0.0,0.0,93,0.00,,OVC060,0.00,VWS V14.00,2013-02-17 17:50:00,
2013-02-17 09:52:00,40.1,38.2,30.30,East,90,0.0,0.0,93,0.00,,OVC060,0.00,VWS V14.00,2013-02-17 17:52:00,
2013-02-17 09:53:00,40.1,38.2,30.30,East,90,0.0,0.0,93,0.00,,OVC060,0.00,VWS V14.00,2013-02-17 17:53:00,
2013-02-17 09:55:00,40.1,38.2,30.30,East,90,0.0,0.0,93,0.00,,OVC060,0.00,VWS V14.00,2013-02-17 17:55:00,
2013-02-17 09:57:00,40.1,38.2,30.30,East,90,0.0,0.0,93,0.00,,OVC060,0.00,VWS V14.00,2013-02-17 17:57:00,
2013-02-17 09:58:00,40.1,38.2,30.30,NNW,338,0.0,0.0,93,0.00,,OVC060,0.00,VWS V14.00,2013-02-17 17:58:00,
2013-02-17 10:00:00,40.3,38.2,30.30,NNW,338,0.0,0.0,92,0.00,,OVC060,0.00,VWS V14.00,2013-02-17 18:00:00,
2013-02-17 10:02:00,40.5,38.3,30.27,NNE,22,0.0,0.0,92,0.00,,OVC060,0.00,VWS V14.00,2013-02-17 18:02:00,
2013-02-17 10:03:00,40.5,38.3,30.27,NE,45,0.0,0.0,92,0.00,,OVC060,0.00,VWS V14.00,2013-02-17 18:03:00,
2013-02-17 10:05:00,40.6,38.5,30.27,NE,45,0.0,0.0,92,0.00,,OVC060,0.00,VWS V14.00,2013-02-17 18:05:00,
2013-02-17 10:07:00,40.6,38.5,30.27,North,0,0.0,0.0,92,0.00,,OVC060,0.00,VWS V14.00,2013-02-17 18:07:00,
2013-02-17 10:08:00,40.8,38.7,30.27,North,0,0.0,0.0,92,0.00,,OVC060,0.00,VWS V14.00,2013-02-17 18:08:00,
2013-02-17 10:10:00,40.8,38.7,30.27,NNW,338,0.0,0.0,92,0.00,,OVC060,0.00,VWS V14.00,2013-02-17 18:10:00,
2013-02-17 10:12:00,41.0,38.6,30.27,NNE,22,0.0,0.0,91,0.00,,OVC060,0.00,VWS V14.00,2013-02-17 18:12:00,
2013-02-17 10:13:00,41.0,38.6,30.27,East,90,0.0,0.0,91,0.00,,OVC060,0.00,VWS V14.00,2013-02-17 18:13:00,
2013-02-17 10:15:00,41.2,38.8,30.27,NW,315,0.0,0.0,91,0.00,,OVC060,0.00,VWS V14.00,2013-02-17 18:15:00,
2013-02-17 10:17:00,41.2,38.8,30.27,West,270,1.3,1.3,91,0.00,,OVC060,0.00,VWS V14.00,2013-02-17 18:17:00,
2013-02-17 10:19:00,41.2,38.5,30.27,NNW,338,0.0,1.3,90,0.00,,OVC060,0.00,VWS V14.00,2013-02-17 18:19:00,
2013-02-17 10:20:00,41.2,38.5,30.27,NNW,338,0.0,1.3,90,0.00,,OVC060,0.00,VWS V14.00,2013-02-17 18:20:00,
2013-02-17 10:22:00,41.2,38.5,30.27,NNW,338,0.0,1.3,90,0.00,,OVC060,0.00,VWS V14.00,2013-02-17 18:22:00,
2013-02-17 10:24:00,41.5,38.8,30.27,NW,315,0.0,1.3,90,0.00,,OVC060,0.00,VWS V14.00,2013-02-17 18:24:00,
2013-02-17 10:25:00,41.5,38.8,30.27,WNW,292,0.0,1.3,90,0.00,,OVC060,0.00,VWS V14.00,2013-02-17 18:25:00,
2013-02-17 10:27:00,41.7,39.0,30.27,NNE,22,0.0,1.3,90,0.00,,OVC060,0.00,VWS V14.00,2013-02-17 18:27:00,
2013-02-17 10:29:00,41.7,39.0,30.27,NE,45,0.0,1.3,90,0.00,,OVC060,0.00,VWS V14.00,2013-02-17 18:29:00,
2013-02-17 10:30:00,41.7,39.0,30.27,NE,45,0.0,1.3,90,0.00,,OVC060,0.00,VWS V14.00,2013-02-17 18:30:00,
2013-02-17 10:32:00,41.9,39.2,30.27,ENE,68,0.0,1.3,90,0.00,,BKN047,0.00,VWS V14.00,2013-02-17 18:32:00,
2013-02-17 10:34:00,41.9,39.2,30.27,East,90,1.3,1.3,90,0.00,,BKN047,0.00,VWS V14.00,2013-02-17 18:34:00,
2013-02-17 10:35:00,41.7,39.0,30.27,East,90,1.3,1.3,90,0.00,,BKN047,0.00,VWS V14.00,2013-02-17 18:35:00,
2013-02-17 10:37:00,41.9,39.2,30.27,East,90,0.0,1.3,90,0.00,,BKN047,0.00,VWS V14.00,2013-02-17 18:37:00,
2013-02-17 10:39:00,42.1,39.4,30.27,East,90,0.0,1.3,90,0.00,,BKN047,0.00,VWS V14.00,2013-02-17 18:39:00,
2013-02-17 10:40:00,42.1,39.4,30.27,NNE,22,0.0,1.3,90,0.00,,BKN047,0.00,VWS V14.00,2013-02-17 18:40:00,
2013-02-17 10:42:00,42.3,39.5,30.27,NNE,22,0.0,1.3,90,0.00,,BKN047,0.00,VWS V14.00,2013-02-17 18:42:00,
2013-02-17 10:43:00,42.3,39.5,30.27,NNE,22,0.0,1.3,90,0.00,,BKN047,0.00,VWS V14.00,2013-02-17 18:43:00,
2013-02-17 10:44:00,42.3,39.3,30.27,ENE,68,0.0,1.3,89,0.00,,BKN047,0.00,VWS V14.00,2013-02-17 18:44:00,
2013-02-17 10:45:00,42.3,39.3,30.27,NNE,22,0.0,1.3,89,0.00,,BKN047,0.00,VWS V14.00,2013-02-17 18:45:00,
2013-02-17 10:47:00,42.3,39.3,30.27,NNW,338,0.0,1.3,89,0.00,,BKN047,0.00,VWS V14.00,2013-02-17 18:47:00,
2013-02-17 10:48:00,42.3,39.3,30.27,NNW,338,0.0,1.3,89,0.00,,BKN047,0.00,VWS V14.00,2013-02-17 18:48:00,
2013-02-17 10:49:00,42.3,39.3,30.27,NE,45,0.0,1.3,89,0.00,,OVC060,0.00,VWS V14.00,2013-02-17 18:49:00,
2013-02-17 10:50:00,42.3,39.0,30.27,NE,45,0.0,1.3,88,0.00,,OVC060,0.00,VWS V14.00,2013-02-17 18:50:00,
2013-02-17 10:53:00,42.3,39.0,30.27,NE,45,0.0,1.3,88,0.00,,OVC060,0.00,VWS V14.00,2013-02-17 18:53:00,
2013-02-17 10:54:00,42.4,39.1,30.27,East,90,2.0,2.0,88,0.00,,OVC060,0.00,VWS V14.00,2013-02-17 18:54:00,
2013-02-17 10:55:00,42.4,39.1,30.27,East,90,2.0,2.0,88,0.00,,OVC060,0.00,VWS V14.00,2013-02-17 18:55:00,
2013-02-17 10:58:00,42.4,39.1,30.27,East,90,2.0,2.0,88,0.00,,OVC060,0.00,VWS V14.00,2013-02-17 18:58:00,
2013-02-17 10:59:00,42.6,39.3,30.27,WNW,292,0.0,2.0,88,0.00,,OVC060,0.00,VWS V14.00,2013-02-17 18:59:00,
2013-02-17 11:00:00,42.6,39.3,30.27,West,270,0.0,2.0,88,0.00,,OVC060,0.00,VWS V14.00,2013-02-17 19:00:00,
2013-02-17 11:03:00,43.0,39.4,30.27,NW,315,0.0,2.0,87,0.00,,OVC060,0.00,VWS V14.00,2013-02-17 19:03:00,
2013-02-17 11:04:00,43.0,39.4,30.27,NW,315,0.0,2.0,87,0.00,,OVC060,0.00,VWS V14.00,2013-02-17 19:04:00,
2013-02-17 11:05:00,43.0,39.4,30.27,NW,315,0.0,2.0,87,0.00,,OVC060,0.00,VWS V14.00,2013-02-17 19:05:00,
2013-02-17 11:08:00,43.3,39.7,30.27,NNW,338,0.0,2.0,87,0.00,,OVC060,0.00,VWS V14.00,2013-02-17 19:08:00,
2013-02-17 11:09:00,43.3,39.7,30.27,WNW,292,0.0,2.0,87,0.00,,OVC060,0.00,VWS V14.00,2013-02-17 19:09:00,
2013-02-17 11:10:00,43.3,39.7,30.27,WNW,292,0.0,2.0,87,0.00,,OVC060,0.00,VWS V14.00,2013-02-17 19:10:00,
2013-02-17 11:13:00,43.3,39.4,30.27,NNE,22,0.0,2.0,86,0.00,,OVC060,0.00,VWS V14.00,2013-02-17 19:13:00,
2013-02-17 11:14:00,43.3,39.4,30.27,NNE,22,0.0,2.0,86,0.00,,OVC060,0.00,VWS V14.00,2013-02-17 19:14:00,
2013-02-17 11:15:00,43.3,39.4,30.27,NNE,22,0.0,2.0,86,0.00,,OVC060,0.00,VWS V14.00,2013-02-17 19:15:00,
2013-02-17 11:18:00,43.3,39.4,30.27,NNW,338,0.0,1.1,86,0.00,,OVC060,0.00,VWS V14.00,2013-02-17 19:18:00,
2013-02-17 11:19:00,43.5,39.6,30.27,NNW,338,0.0,1.1,86,0.00,,OVC060,0.00,VWS V14.00,2013-02-17 19:19:00,
2013-02-17 11:20:00,43.5,39.6,30.27,WNW,292,0.0,1.1,86,0.00,,OVC060,0.00,VWS V14.00,2013-02-17 19:20:00,
2013-02-17 11:23:00,43.7,39.8,30.27,NNW,338,0.0,2.0,86,0.00,,OVC060,0.00,VWS V14.00,2013-02-17 19:23:00,
2013-02-17 11:24:00,43.7,39.8,30.27,NNW,338,0.0,2.0,86,0.00,,OVC060,0.00,VWS V14.00,2013-02-17 19:24:00,
2013-02-17 11:25:00,43.9,40.0,30.27,NNW,338,0.0,2.0,86,0.00,,OVC060,0.00,VWS V14.00,2013-02-17 19:25:00,
2013-02-17 11:28:00,44.1,40.2,30.27,NNW,338,0.0,2.0,86,0.00,,OVC060,0.00,VWS V14.00,2013-02-17 19:28:00,
2013-02-17 11:29:00,44.1,40.2,30.27,NE,45,0.0,2.0,86,0.00,,OVC060,0.00,VWS V14.00,2013-02-17 19:29:00,
2013-02-17 11:30:00,44.1,40.2,30.27,NE,45,0.0,2.0,86,0.00,,OVC060,0.00,VWS V14.00,2013-02-17 19:30:00,
2013-02-17 11:33:00,44.1,39.8,30.27,NE,45,0.0,2.0,85,0.00,,OVC060,0.00,VWS V14.00,2013-02-17 19:33:00,
2013-02-17 11:34:00,43.7,39.5,30.27,North,0,0.0,2.0,85,0.00,,OVC060,0.00,VWS V14.00,2013-02-17 19:34:00,
2013-02-17 11:35:00,43.7,39.5,30.27,North,0,0.0,2.0,85,0.00,,OVC060,0.00,VWS V14.00,2013-02-17 19:35:00,
2013-02-17 11:38:00,43.7,39.5,30.27,North,0,0.0,2.0,85,0.00,,OVC060,0.00,VWS V14.00,2013-02-17 19:38:00,
2013-02-17 11:39:00,43.7,39.5,30.27,ENE,68,0.0,2.0,85,0.00,,OVC060,0.00,VWS V14.00,2013-02-17 19:39:00,
2013-02-17 11:40:00,43.7,39.5,30.27,NNW,338,0.0,2.0,85,0.00,,OVC060,0.00,VWS V14.00,2013-02-17 19:40:00,
2013-02-17 11:43:00,43.7,39.5,30.27,East,90,0.0,1.1,85,0.00,,OVC060,0.00,VWS V14.00,2013-02-17 19:43:00,
2013-02-17 11:44:00,43.7,39.5,30.27,East,90,0.0,1.1,85,0.00,,OVC060,0.00,VWS V14.00,2013-02-17 19:44:00,
2013-02-17 11:45:00,43.7,39.5,30.27,NNE,22,0.0,1.1,85,0.00,,OVC060,0.00,VWS V14.00,2013-02-17 19:45:00,
2013-02-17 11:48:00,43.7,39.5,30.24,NNW,338,0.0,0.0,85,0.00,,OVC060,0.00,VWS V14.00,2013-02-17 19:48:00,
2013-02-17 11:49:00,43.7,39.5,30.24,NW,315,0.0,0.0,85,0.00,,OVC060,0.00,VWS V14.00,2013-02-17 19:49:00,
2013-02-17 11:50:00,44.1,39.8,30.24,North,0,0.0,0.0,85,0.00,,OVC060,0.00,VWS V14.00,2013-02-17 19:50:00,
2013-02-17 11:53:00,44.1,39.8,30.24,SSW,202,0.0,0.0,85,0.00,,OVC060,0.00,VWS V14.00,2013-02-17 19:53:00,
2013-02-17 11:54:00,44.1,39.5,30.24,SSW,202,0.0,0.0,84,0.00,,OVC060,0.00,VWS V14.00,2013-02-17 19:54:00,
2013-02-17 11:56:00,44.1,39.5,30.24,NNW,338,0.0,0.0,84,0.00,,OVC060,0.00,VWS V14.00,2013-02-17 19:56:00,
2013-02-17 11:58:00,44.1,39.5,30.24,WNW,292,0.0,0.0,84,0.00,,OVC060,0.00,VWS V14.00,2013-02-17 19:58:00,
2013-02-17 11:59:00,44.1,39.5,30.24,NW,315,0.0,0.0,84,0.00,,OVC060,0.00,VWS V14.00,2013-02-17 19:59:00,
2013-02-17 12:01:00,44.2,39.7,30.24,NW,315,0.0,0.0,84,0.00,,OVC060,0.00,VWS V14.00,2013-02-17 20:01:00,
2013-02-17 12:03:00,44.4,39.9,30.24,NNW,338,0.0,0.0,84,0.00,,OVC060,0.00,VWS V14.00,2013-02-17 20:03:00,
2013-02-17 12:04:00,44.6,40.1,30.24,NNW,338,0.0,0.0,84,0.00,,OVC060,0.00,VWS V14.00,2013-02-17 20:04:00,
2013-02-17 12:06:00,44.6,39.8,30.24,NE,45,0.0,0.0,83,0.00,,OVC060,0.00,VWS V14.00,2013-02-17 20:06:00,
2013-02-17 12:08:00,44.6,39.8,30.24,WNW,292,0.0,0.0,83,0.00,,OVC060,0.00,VWS V14.00,2013-02-17 20:08:00,
2013-02-17 12:10:00,44.8,39.9,30.24,WNW,292,0.0,0.0,83,0.00,,OVC060,0.00,VWS V14.00,2013-02-17 20:10:00,
2013-02-17 12:11:00,44.8,39.9,30.24,NW,315,0.0,0.0,83,0.00,,OVC060,0.00,VWS V14.00,2013-02-17 20:11:00,
2013-02-17 12:13:00,45.0,40.1,30.24,NNW,338,0.0,0.0,83,0.00,,OVC060,0.00,VWS V14.00,2013-02-17 20:13:00,
2013-02-17 12:15:00,45.0,40.1,30.24,North,0,0.0,0.0,83,0.00,,OVC060,0.00,VWS V14.00,2013-02-17 20:15:00,
2013-02-17 12:16:00,45.1,40.3,30.24,North,0,0.0,0.0,83,0.00,,OVC060,0.00,VWS V14.00,2013-02-17 20:16:00,
2013-02-17 12:18:00,45.1,40.3,30.24,WNW,292,0.0,1.1,83,0.00,,OVC060,0.00,VWS V14.00,2013-02-17 20:18:00,
2013-02-17 12:20:00,45.1,40.3,30.24,WNW,292,0.0,1.1,83,0.00,,OVC060,0.00,VWS V14.00,2013-02-17 20:20:00,
2013-02-17 12:21:00,45.1,40.3,30.24,NW,315,1.3,1.3,83,0.00,,OVC060,0.00,VWS V14.00,2013-02-17 20:21:00,
2013-02-17 12:23:00,45.1,40.0,30.24,North,0,0.0,1.3,82,0.00,,OVC060,0.00,VWS V14.00,2013-02-17 20:23:00,
2013-02-17 12:25:00,45.3,40.2,30.24,WNW,292,0.0,1.3,82,0.00,,OVC060,0.00,VWS V14.00,2013-02-17 20:25:00,
2013-02-17 12:26:00,45.3,40.2,30.24,NW,315,0.0,1.3,82,0.00,,OVC060,0.00,VWS V14.00,2013-02-17 20:26:00,
2013-02-17 12:28:00,45.5,40.3,30.24,West,270,0.0,1.3,82,0.00,,OVC060,0.00,VWS V14.00,2013-02-17 20:28:00,
2013-02-17 12:30:00,45.3,40.2,30.24,WSW,248,0.0,1.6,82,0.00,,OVC060,0.00,VWS V14.00,2013-02-17 20:30:00,
2013-02-17 12:31:00,45.3,40.2,30.24,WNW,292,0.0,1.6,82,0.00,,OVC060,0.00,VWS V14.00,2013-02-17 20:31:00,
2013-02-17 12:33:00,45.1,40.0,30.24,WSW,248,0.0,1.6,82,0.00,,OVC060,0.00,VWS V14.00,2013-02-17 20:33:00,
2013-02-17 12:35:00,45.1,40.0,30.24,East,90,1.6,1.6,82,0.00,,OVC060,0.00,VWS V14.00,2013-02-17 20:35:00,
2013-02-17 12:36:00,44.8,39.9,30.24,East,90,0.9,1.6,83,0.00,,OVC060,0.00,VWS V14.00,2013-02-17 20:36:00,
2013-02-17 12:38:00,44.6,39.5,30.24,NE,45,0.0,3.6,82,0.00,,OVC060,0.00,VWS V14.00,2013-02-17 20:38:00,
2013-02-17 12:40:00,44.6,39.5,30.24,East,90,0.0,3.6,82,0.00,,OVC060,0.00,VWS V14.00,2013-02-17 20:40:00,
2013-02-17 12:41:00,44.8,39.3,30.24,WNW,292,0.0,3.6,81,0.00,,OVC060,0.00,VWS V14.00,2013-02-17 20:41:00,
2013-02-17 12:43:00,45.0,39.5,30.24,NNW,338,0.0,3.6,81,0.00,,OVC060,0.00,VWS V14.00,2013-02-17 20:43:00,
2013-02-17 12:45:00,45.1,40.0,30.24,NNW,338,0.0,3.6,82,0.00,,OVC060,0.00,VWS V14.00,2013-02-17 20:45:00,
2013-02-17 12:46:00,45.1,40.0,30.24,NNW,338,0.0,3.6,82,0.00,,OVC060,0.00,VWS V14.00,2013-02-17 20:46:00,
2013-02-17 12:48:00,45.3,40.5,30.24,WNW,292,0.0,3.6,83,0.00,,OVC060,0.00,VWS V14.00,2013-02-17 20:48:00,
2013-02-17 12:50:00,45.3,40.5,30.24,NNW,338,0.9,3.6,83,0.00,,OVC060,0.00,VWS V14.00,2013-02-17 20:50:00,
2013-02-17 12:51:00,45.3,40.5,30.24,WNW,292,0.0,3.6,83,0.00,,OVC060,0.00,VWS V14.00,2013-02-17 20:51:00,
2013-02-17 12:53:00,45.5,40.3,30.24,West,270,0.0,3.6,82,0.00,,OVC060,0.00,VWS V14.00,2013-02-17 20:53:00,
2013-02-17 12:54:00,45.5,40.3,30.24,West,270,0.0,3.6,82,0.00,,OVC060,0.00,VWS V14.00,2013-02-17 20:54:00,
2013-02-17 12:55:00,45.3,39.8,30.24,WNW,292,0.0,1.1,81,0.00,,OVC060,0.00,VWS V14.00,2013-02-17 20:55:00,
2013-02-17 12:56:00,45.3,39.8,30.24,WNW,292,0.0,0.9,81,0.00,,OVC060,0.00,VWS V14.00,2013-02-17 20:56:00,
2013-02-17 12:58:00,45.5,40.3,30.24,WNW,292,0.0,0.9,82,0.00,,OVC060,0.00,VWS V14.00,2013-02-17 20:58:00,
2013-02-17 12:59:00,45.5,40.3,30.24,WNW,292,0.0,0.9,82,0.00,,OVC060,0.00,VWS V14.00,2013-02-17 20:59:00,
2013-02-17 13:00:00,45.5,40.0,30.24,WNW,292,0.0,0.9,81,0.00,,OVC060,0.00,VWS V14.00,2013-02-17 21:00:00,
2013-02-17 13:01:00,45.5,40.0,30.24,WNW,292,0.0,0.9,81,0.00,,OVC060,0.00,VWS V14.00,2013-02-17 21:01:00,
2013-02-17 13:03:00,45.5,40.0,30.24,WNW,292,0.0,0.9,81,0.00,,OVC060,0.00,VWS V14.00,2013-02-17 21:03:00,
2013-02-17 13:04:00,45.5,40.0,30.24,WNW,292,0.0,0.9,81,0.00,,OVC060,0.00,VWS V14.00,2013-02-17 21:04:00,
2013-02-17 13:05:00,45.5,39.7,30.24,WNW,292,0.0,0.9,80,0.00,,OVC060,0.00,VWS V14.00,2013-02-17 21:05:00,
2013-02-17 13:06:00,45.5,39.7,30.24,WNW,292,0.0,0.9,80,0.00,,OVC060,0.00,VWS V14.00,2013-02-17 21:06:00,
2013-02-17 13:08:00,45.5,39.4,30.24,WNW,292,0.0,0.9,79,0.00,,OVC060,0.00,VWS V14.00,2013-02-17 21:08:00,
2013-02-17 13:09:00,45.5,39.4,30.24,WNW,292,0.0,0.9,79,0.00,,OVC060,0.00,VWS V14.00,2013-02-17 21:09:00,
2013-02-17 13:10:00,45.7,39.5,30.24,WNW,292,0.0,0.0,79,0.00,,OVC060,0.00,VWS V14.00,2013-02-17 21:10:00,
2013-02-17 13:11:00,45.7,39.5,30.24,WNW,292,0.0,0.0,79,0.00,,OVC060,0.00,VWS V14.00,2013-02-17 21:11:00,
2013-02-17 13:14:00,45.7,39.5,30.24,WNW,292,0.0,0.0,79,0.00,,OVC060,0.00,VWS V14.00,2013-02-17 21:14:00,
2013-02-17 13:15:00,45.9,39.7,30.24,WNW,292,0.0,0.0,79,0.00,,OVC060,0.00,VWS V14.00,2013-02-17 21:15:00,
2013-02-17 13:16:00,45.9,39.7,30.24,WNW,292,0.0,0.0,79,0.00,,OVC060,0.00,VWS V14.00,2013-02-17 21:16:00,
2013-02-17 13:19:00,45.9,39.7,30.24,WNW,292,0.0,0.0,79,0.00,,OVC060,0.00,VWS V14.00,2013-02-17 21:19:00,
2013-02-17 13:20:00,45.7,39.5,30.24,WNW,292,0.0,0.0,79,0.00,,OVC060,0.00,VWS V14.00,2013-02-17 21:20:00,
2013-02-17 13:21:00,45.7,39.5,30.24,WNW,292,0.0,0.0,79,0.00,,OVC060,0.00,VWS V14.00,2013-02-17 21:21:00,
2013-02-17 13:24:00,45.7,39.9,30.24,WNW,292,0.0,0.0,80,0.00,,OVC060,0.00,VWS V14.00,2013-02-17 21:24:00,
2013-02-17 13:25:00,45.7,39.9,30.24,WSW,248,0.0,0.0,80,0.00,,OVC060,0.00,VWS V14.00,2013-02-17 21:25:00,
2013-02-17 13:26:00,45.7,39.9,30.24,East,90,0.0,0.0,80,0.00,,OVC060,0.00,VWS V14.00,2013-02-17 21:26:00,
2013-02-17 13:29:00,45.5,40.0,30.24,East,90,1.3,2.2,81,0.00,,OVC060,0.00,VWS V14.00,2013-02-17 21:29:00,
2013-02-17 13:30:00,45.5,40.0,30.24,East,90,2.0,2.2,81,0.00,,OVC060,0.00,VWS V14.00,2013-02-17 21:30:00,
2013-02-17 13:31:00,45.5,40.0,30.24,East,90,0.0,2.2,81,0.00,,OVC060,0.00,VWS V14.00,2013-02-17 21:31:00,
2013-02-17 13:34:00,45.7,40.2,30.24,East,90,0.0,2.2,81,0.00,,OVC060,0.00,VWS V14.00,2013-02-17 21:34:00,
2013-02-17 13:35:00,45.9,40.0,30.24,ENE,68,0.0,2.2,80,0.00,,OVC060,0.00,VWS V14.00,2013-02-17 21:35:00,
2013-02-17 13:36:00,45.9,40.0,30.24,East,90,0.0,2.2,80,0.00,,OVC060,0.00,VWS V14.00,2013-02-17 21:36:00,
2013-02-17 13:39:00,46.0,40.2,30.24,East,90,0.0,2.2,80,0.00,,OVC060,0.00,VWS V14.00,2013-02-17 21:39:00,
2013-02-17 13:40:00,46.0,40.2,30.24,East,90,2.5,2.5,80,0.00,,OVC060,0.00,VWS V14.00,2013-02-17 21:40:00,
2013-02-17 13:41:00,46.0,40.2,30.24,East,90,0.0,2.5,80,0.00,,OVC060,0.00,VWS V14.00,2013-02-17 21:41:00,
2013-02-17 13:44:00,46.0,39.9,30.24,NNW,338,0.0,2.9,79,0.00,,OVC060,0.00,VWS V14.00,2013-02-17 21:44:00,
2013-02-17 13:45:00,46.0,39.9,30.24,WNW,292,0.0,2.9,79,0.00,,OVC060,0.00,VWS V14.00,2013-02-17 21:45:00,
2013-02-17 13:46:00,46.2,40.1,30.21,WNW,292,0.0,2.9,79,0.00,,OVC060,0.00,VWS V14.00,2013-02-17 21:46:00,
2013-02-17 13:49:00,46.4,40.2,30.21,NE,45,0.0,2.9,79,0.00,,BKN060,0.00,VWS V14.00,2013-02-17 21:49:00,
2013-02-17 13:50:00,46.4,40.2,30.21,NE,45,0.0,2.9,79,0.00,,BKN060,0.00,VWS V14.00,2013-02-17 21:50:00,
2013-02-17 13:52:00,46.4,39.9,30.21,NNE,22,3.8,3.8,78,0.00,,BKN060,0.00,VWS V14.00,2013-02-17 21:52:00,
2013-02-17 13:54:00,46.4,39.9,30.21,NE,45,4.0,4.0,78,0.00,,BKN060,0.00,VWS V14.00,2013-02-17 21:54:00,
2013-02-17 13:55:00,46.2,39.8,30.21,NE,45,2.0,4.0,78,0.00,,BKN060,0.00,VWS V14.00,2013-02-17 21:55:00,
2013-02-17 13:57:00,46.2,39.8,30.21,NE,45,3.6,4.0,78,0.00,,BKN060,0.00,VWS V14.00,2013-02-17 21:57:00,
2013-02-17 13:59:00,46.2,39.8,30.21,ENE,68,3.1,4.0,78,0.00,,BKN060,0.00,VWS V14.00,2013-02-17 21:59:00,
2013-02-17 14:00:00,46.2,39.8,30.21,NNW,338,0.0,3.6,78,0.00,,BKN060,0.00,VWS V14.00,2013-02-17 22:00:00,
2013-02-17 14:02:00,46.2,39.8,30.21,NNW,338,0.0,0.0,78,0.00,,BKN060,0.00,VWS V14.00,2013-02-17 22:02:00,
2013-02-17 14:04:00,46.2,39.8,30.21,ENE,68,2.2,2.2,78,0.00,,BKN060,0.00,VWS V14.00,2013-02-17 22:04:00,
2013-02-17 14:05:00,46.2,39.8,30.21,ENE,68,2.7,2.7,78,0.00,,BKN060,0.00,VWS V14.00,2013-02-17 22:05:00,
2013-02-17 14:07:00,46.2,39.8,30.21,NNW,338,2.5,2.7,78,0.00,,BKN060,0.00,VWS V14.00,2013-02-17 22:07:00,
2013-02-17 14:09:00,46.0,39.2,30.21,NNE,22,0.0,2.7,77,0.00,,BKN060,0.00,VWS V14.00,2013-02-17 22:09:00,
2013-02-17 14:10:00,46.0,39.2,30.21,NNW,338,0.0,2.7,77,0.00,,BKN060,0.00,VWS V14.00,2013-02-17 22:10:00,
2013-02-17 14:12:00,46.0,39.2,30.21,NE,45,2.7,2.7,77,0.00,,BKN060,0.00,VWS V14.00,2013-02-17 22:12:00,
2013-02-17 14:14:00,46.2,39.4,30.21,NE,45,2.0,2.7,77,0.00,,BKN060,0.00,VWS V14.00,2013-02-17 22:14:00,
2013-02-17 14:16:00,46.2,39.4,30.21,ENE,68,2.2,2.7,77,0.00,,BKN060,0.00,VWS V14.00,2013-02-17 22:16:00,
2013-02-17 14:17:00,46.0,38.9,30.21,ENE,68,2.5,2.7,76,0.00,,BKN060,0.00,VWS V14.00,2013-02-17 22:17:00,
2013-02-17 14:19:00,46.0,39.2,30.21,East,90,2.0,2.7,77,0.00,,BKN060,0.00,VWS V14.00,2013-02-17 22:19:00,
2013-02-17 14:21:00,46.0,39.2,30.21,ENE,68,1.6,2.7,77,0.00,,BKN060,0.00,VWS V14.00,2013-02-17 22:21:00,
2013-02-17 14:22:00,46.0,39.2,30.21,ENE,68,2.0,2.7,77,0.00,,BKN060,0.00,VWS V14.00,2013-02-17 22:22:00,
2013-02-17 14:24:00,46.0,39.2,30.21,ENE,68,1.1,6.7,77,0.00,,BKN060,0.00,VWS V14.00,2013-02-17 22:24:00,
2013-02-17 14:26:00,46.0,39.2,30.21,ENE,68,2.2,6.7,77,0.00,,BKN060,0.00,VWS V14.00,2013-02-17 22:26:00,
2013-02-17 14:27:00,45.9,39.1,30.21,West,270,0.0,6.7,77,0.00,,BKN060,0.00,VWS V14.00,2013-02-17 22:27:00,
2013-02-17 14:29:00,45.9,39.1,30.21,NNE,22,0.0,6.7,77,0.00,,BKN060,0.00,VWS V14.00,2013-02-17 22:29:00,
2013-02-17 14:31:00,45.9,39.1,30.21,WNW,292,0.0,6.7,77,0.00,,BKN060,0.00,VWS V14.00,2013-02-17 22:31:00,
2013-02-17 14:32:00,45.9,39.4,30.21,WNW,292,1.6,2.2,78,0.00,,OVC060,0.00,VWS V14.00,2013-02-17 22:32:00,
2013-02-17 14:34:00,46.0,39.6,30.21,WNW,292,0.0,1.6,78,0.00,,OVC060,0.00,VWS V14.00,2013-02-17 22:34:00,
2013-02-17 14:36:00,46.0,39.6,30.21,WNW,292,2.7,2.7,78,0.00,,OVC060,0.00,VWS V14.00,2013-02-17 22:36:00,
2013-02-17 14:37:00,46.0,39.6,30.21,NNW,338,1.3,2.7,78,0.00,,OVC060,0.00,VWS V14.00,2013-02-17 22:37:00,
2013-02-17 14:39:00,45.9,39.1,30.21,WNW,292,1.1,2.7,77,0.00,,OVC060,0.00,VWS V14.00,2013-02-17 22:39:00,
2013-02-17 14:40:00,45.9,39.1,30.21,WNW,292,1.1,2.7,77,0.00,,OVC060,0.00,VWS V14.00,2013-02-17 22:40:00,
2013-02-17 14:41:00,46.0,39.2,30.21,WNW,292,0.0,2.7,77,0.00,,OVC060,0.00,VWS V14.00,2013-02-17 22:41:00,
2013-02-17 14:42:00,46.0,39.2,30.21,WNW,292,0.0,2.7,77,0.00,,OVC060,0.00,VWS V14.00,2013-02-17 22:42:00,
2013-02-17 14:44:00,46.0,39.2,30.21,WNW,292,0.0,2.7,77,0.00,,OVC060,0.00,VWS V14.00,2013-02-17 22:44:00,
2013-02-17 14:45:00,46.0,39.2,30.21,WNW,292,0.0,2.7,77,0.00,,OVC060,0.00,VWS V14.00,2013-02-17 22:45:00,
2013-02-17 14:46:00,46.0,39.2,30.21,ENE,68,0.0,2.7,77,0.00,,OVC060,0.00,VWS V14.00,2013-02-17 22:46:00,
2013-02-17 14:47:00,46.0,39.2,30.21,ENE,68,0.0,2.7,77,0.00,,OVC060,0.00,VWS V14.00,2013-02-17 22:47:00,
2013-02-17 14:49:00,46.0,39.2,30.21,North,0,0.0,0.0,77,0.00,,OVC060,0.00,VWS V14.00,2013-02-17 22:49:00,
2013-02-17 14:50:00,46.0,39.2,30.21,North,0,0.0,0.0,77,0.00,,OVC060,0.00,VWS V14.00,2013-02-17 22:50:00,
2013-02-17 14:51:00,46.0,39.2,30.21,North,0,0.0,0.0,77,0.00,,OVC060,0.00,VWS V14.00,2013-02-17 22:51:00,
2013-02-17 14:52:00,46.0,39.2,30.21,NNE,22,0.0,0.0,77,0.00,,OVC060,0.00,VWS V14.00,2013-02-17 22:52:00,
2013-02-17 14:54:00,46.0,39.2,30.21,ENE,68,0.9,1.6,77,0.00,,OVC060,0.00,VWS V14.00,2013-02-17 22:54:00,
2013-02-17 14:55:00,45.9,39.1,30.21,ENE,68,0.9,1.6,77,0.00,,OVC060,0.00,VWS V14.00,2013-02-17 22:55:00,
2013-02-17 14:56:00,45.9,39.1,30.21,SE,135,0.0,1.6,77,0.00,,SCT060,0.00,VWS V14.00,2013-02-17 22:56:00,
2013-02-17 14:57:00,45.9,39.1,30.21,ESE,112,0.0,1.6,77,0.00,,OVC060,0.00,VWS V14.00,2013-02-17 22:57:00,
2013-02-17 14:59:00,46.0,39.2,30.21,East,90,0.0,1.6,77,0.00,,OVC060,0.00,VWS V14.00,2013-02-17 22:59:00,
2013-02-17 15:00:00,46.0,39.2,30.21,East,90,0.0,1.6,77,0.00,,OVC060,0.00,VWS V14.00,2013-02-17 23:00:00,
2013-02-17 15:01:00,46.0,39.2,30.21,East,90,0.0,1.6,77,0.00,,OVC060,0.00,VWS V14.00,2013-02-17 23:01:00,
2013-02-17 15:02:00,46.0,39.2,30.21,East,90,0.0,1.6,77,0.00,,OVC060,0.00,VWS V14.00,2013-02-17 23:02:00,
2013-02-17 15:05:00,46.0,39.2,30.21,East,90,0.0,1.6,77,0.00,,OVC060,0.00,VWS V14.00,2013-02-17 23:05:00,
2013-02-17 15:06:00,46.0,39.2,30.21,East,90,0.0,1.6,77,0.00,,OVC060,0.00,VWS V14.00,2013-02-17 23:06:00,
2013-02-17 15:07:00,46.0,39.2,30.21,East,90,0.0,1.6,77,0.00,,OVC060,0.00,VWS V14.00,2013-02-17 23:07:00,
2013-02-17 15:10:00,46.2,39.1,30.21,East,90,0.0,1.6,76,0.00,,OVC060,0.00,VWS V14.00,2013-02-17 23:10:00,
2013-02-17 15:11:00,46.2,39.4,30.21,East,90,0.0,1.3,77,0.00,,OVC060,0.00,VWS V14.00,2013-02-17 23:11:00,
2013-02-17 15:12:00,46.2,39.4,30.21,East,90,0.0,1.3,77,0.00,,OVC060,0.00,VWS V14.00,2013-02-17 23:12:00,
2013-02-17 15:15:00,46.2,39.4,30.21,East,90,0.0,1.3,77,0.00,,OVC060,0.00,VWS V14.00,2013-02-17 23:15:00,
2013-02-17 15:16:00,46.2,39.4,30.21,East,90,0.0,1.3,77,0.00,,OVC060,0.00,VWS V14.00,2013-02-17 23:16:00,
2013-02-17 15:17:00,46.2,39.4,30.21,East,90,0.0,1.3,77,0.00,,OVC060,0.00,VWS V14.00,2013-02-17 23:17:00,
2013-02-17 15:20:00,46.4,39.6,30.21,East,90,0.0,1.3,77,0.00,,OVC060,0.00,VWS V14.00,2013-02-17 23:20:00,
2013-02-17 15:21:00,46.4,39.3,30.21,East,90,0.0,0.0,76,0.00,,OVC060,0.00,VWS V14.00,2013-02-17 23:21:00,
2013-02-17 15:22:00,46.4,39.3,30.21,ESE,112,0.0,0.0,76,0.00,,OVC060,0.00,VWS V14.00,2013-02-17 23:22:00,
2013-02-17 15:25:00,46.4,39.3,30.21,SE,135,0.0,0.0,76,0.00,,OVC060,0.00,VWS V14.00,2013-02-17 23:25:00,
2013-02-17 15:26:00,46.4,39.3,30.21,ENE,68,0.0,0.0,76,0.00,,OVC060,0.00,VWS V14.00,2013-02-17 23:26:00,
2013-02-17 15:27:00,46.4,39.3,30.21,East,90,0.0,0.0,76,0.00,,OVC060,0.00,VWS V14.00,2013-02-17 23:27:00,
2013-02-17 15:30:00,46.6,39.4,30.21,ENE,68,0.0,0.0,76,0.00,,OVC060,0.00,VWS V14.00,2013-02-17 23:30:00,
2013-02-17 15:31:00,46.6,39.4,30.21,East,90,0.0,0.0,76,0.00,,OVC060,0.00,VWS V14.00,2013-02-17 23:31:00,
2013-02-17 15:32:00,46.6,39.4,30.21,East,90,0.0,0.0,76,0.00,,OVC060,0.00,VWS V14.00,2013-02-17 23:32:00,
2013-02-17 15:35:00,46.6,39.4,30.21,East,90,2.7,2.7,76,0.00,,OVC060,0.00,VWS V14.00,2013-02-17 23:35:00,
2013-02-17 15:36:00,46.6,39.4,30.21,East,90,0.9,2.7,76,0.00,,OVC060,0.00,VWS V14.00,2013-02-17 23:36:00,
2013-02-17 15:37:00,46.6,39.4,30.21,East,90,1.1,2.7,76,0.00,,OVC060,0.00,VWS V14.00,2013-02-17 23:37:00,
2013-02-17 15:40:00,46.4,39.3,30.21,East,90,2.9,5.6,76,0.00,,OVC060,0.00,VWS V14.00,2013-02-17 23:40:00,
2013-02-17 15:41:00,46.4,39.3,30.21,East,90,3.1,5.6,76,0.00,,OVC060,0.00,VWS V14.00,2013-02-17 23:41:00,
2013-02-17 15:42:00,46.4,39.3,30.21,East,90,4.0,5.6,76,0.00,,OVC060,0.00,VWS V14.00,2013-02-17 23:42:00,
2013-02-17 15:45:00,46.2,39.4,30.21,WNW,292,2.7,5.6,77,0.00,,OVC060,0.00,VWS V14.00,2013-02-17 23:45:00,
2013-02-17 15:46:00,46.0,39.2,30.21,ENE,68,2.7,5.6,77,0.00,,OVC060,0.00,VWS V14.00,2013-02-17 23:46:00,
2013-02-17 15:47:00,46.0,39.2,30.21,ENE,68,2.5,5.6,77,0.00,,OVC060,0.00,VWS V14.00,2013-02-17 23:47:00,
2013-02-17 15:50:00,46.0,39.2,30.21,ENE,68,1.3,5.6,77,0.00,,OVC060,0.00,VWS V14.00,2013-02-17 23:50:00,
2013-02-17 15:51:00,46.0,39.2,30.21,SSE,158,0.0,5.6,77,0.00,,OVC060,0.00,VWS V14.00,2013-02-17 23:51:00,
2013-02-17 15:52:00,46.0,39.2,30.21,SSE,158,0.0,5.6,77,0.00,,OVC060,0.00,VWS V14.00,2013-02-17 23:52:00,
2013-02-17 15:55:00,46.0,39.2,30.21,ESE,112,2.0,4.0,77,0.00,,OVC060,0.00,VWS V14.00,2013-02-17 23:55:00,
2013-02-17 15:56:00,45.9,39.1,30.21,East,90,2.5,4.0,77,0.00,,BKN060,0.00,VWS V14.00,2013-02-17 23:56:00,
2013-02-17 15:57:00,45.9,39.1,30.21,East,90,0.0,4.0,77,0.00,,OVC060,0.00,VWS V14.00,2013-02-17 23:57:00,
2013-02-17 16:00:00,46.0,39.2,30.21,WNW,292,0.0,4.0,77,0.00,,OVC060,0.00,VWS V14.00,2013-02-18 00:00:00,
2013-02-17 16:01:00,46.0,39.2,30.21,NE,45,0.0,4.0,77,0.00,,OVC060,0.00,VWS V14.00,2013-02-18 00:01:00,
2013-02-17 16:02:00,46.0,39.2,30.21,NNE,22,0.0,4.0,77,0.00,,OVC060,0.00,VWS V14.00,2013-02-18 00:02:00,
2013-02-17 16:05:00,46.0,39.2,30.21,ESE,112,2.2,4.7,77,0.00,,OVC060,0.00,VWS V14.00,2013-02-18 00:05:00,
2013-02-17 16:06:00,45.9,39.1,30.21,East,90,2.7,4.7,77,0.00,,OVC060,0.00,VWS V14.00,2013-02-18 00:06:00,
2013-02-17 16:07:00,45.9,39.1,30.21,East,90,2.7,4.7,77,0.00,,OVC060,0.00,VWS V14.00,2013-02-18 00:07:00,
2013-02-17 16:10:00,45.9,39.1,30.21,ESE,112,2.7,4.7,77,0.00,,OVC060,0.00,VWS V14.00,2013-02-18 00:10:00,
2013-02-17 16:11:00,45.9,39.1,30.21,ESE,112,0.0,4.7,77,0.00,,OVC060,0.00,VWS V14.00,2013-02-18 00:11:00,
2013-02-17 16:12:00,46.0,38.9,30.21,North,0,0.0,4.7,76,0.00,,OVC060,0.00,VWS V14.00,2013-02-18 00:12:00,
2013-02-17 16:15:00,46.0,38.9,30.21,East,90,0.0,4.7,76,0.00,,OVC060,0.00,VWS V14.00,2013-02-18 00:15:00,
2013-02-17 16:16:00,46.2,39.1,30.21,East,90,0.0,4.7,76,0.00,,OVC060,0.00,VWS V14.00,2013-02-18 00:16:00,
2013-02-17 16:17:00,46.2,39.1,30.21,East,90,0.0,4.7,76,0.00,,OVC060,0.00,VWS V14.00,2013-02-18 00:17:00,
2013-02-17 16:20:00,46.0,38.9,30.21,ENE,68,1.6,4.7,76,0.00,,OVC060,0.00,VWS V14.00,2013-02-18 00:20:00,
2013-02-17 16:21:00,46.0,38.9,30.21,WNW,292,0.0,2.7,76,0.00,,OVC060,0.00,VWS V14.00,2013-02-18 00:21:00,
2013-02-17 16:22:00,46.0,38.9,30.21,NNW,338,0.0,2.7,76,0.00,,OVC060,0.00,VWS V14.00,2013-02-18 00:22:00,
2013-02-17 16:25:00,46.0,38.6,30.21,SE,135,0.0,2.7,75,0.00,,OVC060,0.00,VWS V14.00,2013-02-18 00:25:00,
2013-02-17 16:26:00,45.9,38.4,30.21,East,90,0.0,2.7,75,0.00,,OVC060,0.00,VWS V14.00,2013-02-18 00:26:00,
2013-02-17 16:27:00,45.9,38.4,30.21,East,90,0.0,2.7,75,0.00,,OVC060,0.00,VWS V14.00,2013-02-18 00:27:00,
2013-02-17 16:30:00,45.9,38.0,30.21,East,90,0.0,2.5,74,0.00,,OVC060,0.00,VWS V14.00,2013-02-18 00:30:00,
2013-02-17 16:31:00,45.9,38.0,30.21,East,90,0.0,2.5,74,0.00,,OVC060,0.00,VWS V14.00,2013-02-18 00:31:00,
2013-02-17 16:32:00,45.9,38.0,30.21,East,90,0.0,2.5,74,0.00,,OVC060,0.00,VWS V14.00,2013-02-18 00:32:00,
2013-02-17 16:35:00,45.9,38.0,30.21,NNW,338,0.0,2.5,74,0.00,,OVC060,0.00,VWS V14.00,2013-02-18 00:35:00,
2013-02-17 16:36:00,45.9,38.0,30.21,NNW,338,0.0,1.6,74,0.00,,OVC060,0.00,VWS V14.00,2013-02-18 00:36:00,
2013-02-17 16:37:00,45.9,37.7,30.21,WNW,292,0.0,0.0,73,0.00,,OVC060,0.00,VWS V14.00,2013-02-18 00:37:00,
2013-02-17 16:40:00,45.9,37.7,30.21,NW,315,0.0,0.0,73,0.00,,OVC060,0.00,VWS V14.00,2013-02-18 00:40:00,
2013-02-17 16:41:00,45.9,37.7,30.21,WNW,292,0.0,0.0,73,0.00,,OVC060,0.00,VWS V14.00,2013-02-18 00:41:00,
2013-02-17 16:42:00,45.7,37.5,30.21,WNW,292,0.0,0.0,73,0.00,,OVC060,0.00,VWS V14.00,2013-02-18 00:42:00,
2013-02-17 16:45:00,45.7,37.5,30.21,ENE,68,0.0,0.0,73,0.00,,OVC060,0.00,VWS V14.00,2013-02-18 00:45:00,
2013-02-17 16:47:00,45.9,37.7,30.18,WNW,292,0.0,0.0,73,0.00,,OVC060,0.00,VWS V14.00,2013-02-18 00:47:00,
2013-02-17 16:50:00,45.9,37.7,30.18,WSW,248,0.0,0.0,73,0.00,,OVC060,0.00,VWS V14.00,2013-02-18 00:50:00,
2013-02-17 16:52:00,45.7,37.9,30.18,ESE,112,0.0,0.0,74,0.00,,OVC060,0.00,VWS V14.00,2013-02-18 00:52:00,
2013-02-17 16:55:00,45.3,37.5,30.18,NE,45,0.0,0.0,74,0.00,,OVC060,0.00,VWS V14.00,2013-02-18 00:55:00,
2013-02-17 16:56:00,45.3,37.5,30.18,NE,45,0.0,0.0,74,0.00,,OVC060,0.00,VWS V14.00,2013-02-18 00:56:00,
2013-02-17 16:57:00,45.3,37.5,30.18,West,270,0.0,0.0,74,0.00,,OVC060,0.00,VWS V14.00,2013-02-18 00:57:00,
2013-02-17 17:00:00,45.1,37.4,30.18,North,0,0.0,0.0,74,0.00,,OVC060,0.00,VWS V14.00,2013-02-18 01:00:00,
2013-02-17 17:01:00,45.1,37.4,30.18,North,0,0.0,0.0,74,0.00,,OVC060,0.00,VWS V14.00,2013-02-18 01:01:00,
2013-02-17 17:02:00,45.1,37.4,30.18,NNE,22,0.0,0.0,74,0.00,,OVC060,0.00,VWS V14.00,2013-02-18 01:02:00,
2013-02-17 17:05:00,45.0,37.2,30.18,ESE,112,0.0,0.0,74,0.00,,OVC060,0.00,VWS V14.00,2013-02-18 01:05:00,
2013-02-17 17:06:00,45.0,37.2,30.18,ESE,112,0.0,0.0,74,0.00,,OVC060,0.00,VWS V14.00,2013-02-18 01:06:00,
2013-02-17 17:07:00,45.0,37.2,30.18,East,90,0.0,0.0,74,0.00,,OVC060,0.00,VWS V14.00,2013-02-18 01:07:00,
2013-02-17 17:08:00,45.0,37.2,30.18,East,90,0.0,0.0,74,0.00,,OVC060,0.00,VWS V14.00,2013-02-18 01:08:00,
2013-02-17 17:10:00,44.8,37.0,30.18,ENE,68,0.0,0.0,74,0.00,,OVC060,0.00,VWS V14.00,2013-02-18 01:10:00,
2013-02-17 17:11:00,44.8,37.0,30.18,ENE,68,0.0,0.0,74,0.00,,OVC060,0.00,VWS V14.00,2013-02-18 01:11:00,
2013-02-17 17:12:00,44.8,37.0,30.18,ENE,68,0.0,0.0,74,0.00,,OVC060,0.00,VWS V14.00,2013-02-18 01:12:00,
2013-02-17 17:13:00,44.8,37.3,30.18,ENE,68,0.0,0.0,75,0.00,,OVC060,0.00,VWS V14.00,2013-02-18 01:13:00,
2013-02-17 17:15:00,44.6,37.2,30.18,ESE,112,0.0,0.0,75,0.00,,OVC060,0.00,VWS V14.00,2013-02-18 01:15:00,
2013-02-17 17:16:00,44.6,37.5,30.18,ESE,112,0.0,0.0,76,0.00,,OVC060,0.00,VWS V14.00,2013-02-18 01:16:00,
2013-02-17 17:17:00,44.6,37.5,30.18,ESE,112,0.0,0.0,76,0.00,,OVC060,0.00,VWS V14.00,2013-02-18 01:17:00,
2013-02-17 17:18:00,44.6,37.2,30.18,ESE,112,0.0,0.0,75,0.00,,OVC060,0.00,VWS V14.00,2013-02-18 01:18:00,
2013-02-17 17:21:00,44.6,37.2,30.18,WNW,292,2.5,2.5,75,0.00,,OVC060,0.00,VWS V14.00,2013-02-18 01:21:00,
2013-02-17 17:22:00,44.4,37.3,30.18,NNW,338,0.0,2.5,76,0.00,,OVC060,0.00,VWS V14.00,2013-02-18 01:22:00,
2013-02-17 17:23:00,44.4,37.3,30.18,WNW,292,0.0,2.5,76,0.00,,OVC060,0.00,VWS V14.00,2013-02-18 01:23:00,
2013-02-17 17:26:00,44.2,37.2,30.18,West,270,0.0,2.5,76,0.00,,OVC060,0.00,VWS V14.00,2013-02-18 01:26:00,
2013-02-17 17:27:00,44.2,37.2,30.18,West,270,0.0,2.5,76,0.00,,OVC060,0.00,VWS V14.00,2013-02-18 01:27:00,
2013-02-17 17:28:00,44.2,37.2,30.18,West,270,0.0,2.5,76,0.00,,OVC060,0.00,VWS V14.00,2013-02-18 01:28:00,
2013-02-17 17:31:00,44.2,37.5,30.18,SSW,202,0.0,2.5,77,0.00,,OVC060,0.00,VWS V14.00,2013-02-18 01:31:00,
2013-02-17 17:32:00,44.1,37.3,30.18,West,270,1.6,2.5,77,0.00,,OVC060,0.00,VWS V14.00,2013-02-18 01:32:00,
2013-02-17 17:33:00,44.1,37.3,30.18,NNW,338,0.0,2.5,77,0.00,,OVC060,0.00,VWS V14.00,2013-02-18 01:33:00,
2013-02-17 17:36:00,44.1,37.3,30.18,WNW,292,0.0,2.5,77,0.00,,OVC060,0.00,VWS V14.00,2013-02-18 01:36:00,
2013-02-17 17:37:00,44.1,37.3,30.18,West,270,0.0,1.6,77,0.00,,OVC060,0.00,VWS V14.00,2013-02-18 01:37:00,
2013-02-17 17:38:00,44.1,37.7,30.18,West,270,0.0,1.6,78,0.00,,OVC060,0.00,VWS V14.00,2013-02-18 01:38:00,
2013-02-17 17:41:00,43.9,37.5,30.18,ESE,112,0.0,1.6,78,0.00,,OVC060,0.00,VWS V14.00,2013-02-18 01:41:00,
2013-02-17 17:42:00,43.9,37.5,30.18,ESE,112,0.0,1.6,78,0.00,,OVC060,0.00,VWS V14.00,2013-02-18 01:42:00,
2013-02-17 17:43:00,43.7,37.3,30.18,ESE,112,0.0,1.6,78,0.00,,OVC060,0.00,VWS V14.00,2013-02-18 01:43:00,
2013-02-17 17:45:00,43.7,37.3,30.18,ESE,112,0.0,1.6,78,0.00,,OVC060,0.00,VWS V14.00,2013-02-18 01:45:00,
2013-02-17 17:46:00,43.7,37.3,30.18,ESE,112,0.0,1.6,78,0.00,,OVC060,0.00,VWS V14.00,2013-02-18 01:46:00,
2013-02-17 17:47:00,43.7,37.3,30.18,SW,225,0.0,1.6,78,0.00,,OVC060,0.00,VWS V14.00,2013-02-18 01:47:00,
2013-02-17 17:48:00,43.7,37.3,30.18,West,270,0.0,1.6,78,0.00,,OVC060,0.00,VWS V14.00,2013-02-18 01:48:00,
2013-02-17 17:51:00,43.7,37.3,30.18,West,270,0.0,0.0,78,0.00,,OVC060,0.00,VWS V14.00,2013-02-18 01:51:00,
2013-02-17 17:52:00,43.7,37.3,30.18,West,270,0.0,0.0,78,0.00,,OVC060,0.00,VWS V14.00,2013-02-18 01:52:00,
2013-02-17 17:53:00,43.7,37.3,30.18,West,270,0.0,0.0,78,0.00,,OVC060,0.00,VWS V14.00,2013-02-18 01:53:00,
2013-02-17 17:56:00,43.7,37.6,30.18,West,270,0.0,0.0,79,0.00,,OVC060,0.00,VWS V14.00,2013-02-18 01:56:00,
2013-02-17 17:57:00,43.7,37.6,30.18,West,270,0.0,0.0,79,0.00,,OVC060,0.00,VWS V14.00,2013-02-18 01:57:00,
2013-02-17 17:58:00,43.7,37.6,30.18,West,270,0.0,0.0,79,0.00,,OVC060,0.00,VWS V14.00,2013-02-18 01:58:00,
2013-02-17 18:01:00,43.5,37.5,30.18,WSW,248,0.0,0.0,79,0.00,,OVC060,0.00,VWS V14.00,2013-02-18 02:01:00,
2013-02-17 18:02:00,43.5,37.5,30.18,WSW,248,0.0,0.0,79,0.00,,OVC060,0.00,VWS V14.00,2013-02-18 02:02:00,
2013-02-17 18:03:00,43.5,37.5,30.18,SSW,202,0.0,0.0,79,0.00,,OVC060,0.00,VWS V14.00,2013-02-18 02:03:00,
2013-02-17 18:06:00,43.5,37.5,30.18,ESE,112,0.0,0.0,79,0.00,,OVC060,0.00,VWS V14.00,2013-02-18 02:06:00,
2013-02-17 18:07:00,43.3,37.6,30.18,ESE,112,0.0,0.0,80,0.00,,OVC060,0.00,VWS V14.00,2013-02-18 02:07:00,
2013-02-17 18:08:00,43.3,37.6,30.18,ESE,112,0.9,0.9,80,0.00,,OVC060,0.00,VWS V14.00,2013-02-18 02:08:00,
2013-02-17 18:11:00,43.3,37.6,30.18,SE,135,0.0,0.9,80,0.00,,OVC060,0.00,VWS V14.00,2013-02-18 02:11:00,
2013-02-17 18:12:00,43.3,37.6,30.18,SE,135,0.0,0.9,80,0.00,,OVC060,0.00,VWS V14.00,2013-02-18 02:12:00,
2013-02-17 18:13:00,43.3,37.6,30.18,ESE,112,0.0,0.9,80,0.00,,OVC060,0.00,VWS V14.00,2013-02-18 02:13:00,
2013-02-17 18:16:00,43.3,37.6,30.18,ESE,112,0.0,0.9,80,0.00,,OVC060,0.00,VWS V14.00,2013-02-18 02:16:00,
2013-02-17 18:17:00,43.3,37.6,30.18,ESE,112,0.0,0.9,80,0.00,,OVC060,0.00,VWS V14.00,2013-02-18 02:17:00,
2013-02-17 18:18:00,43.2,37.4,30.18,ESE,112,0.0,0.9,80,0.00,,OVC060,0.00,VWS V14.00,2013-02-18 02:18:00,
2013-02-17 18:21:00,43.2,37.4,30.18,ESE,112,0.0,0.9,80,0.00,,OVC060,0.00,VWS V14.00,2013-02-18 02:21:00,
2013-02-17 18:23:00,43.2,37.4,30.18,ESE,112,0.0,0.9,80,0.00,,OVC060,0.00,VWS V14.00,2013-02-18 02:23:00,
2013-02-17 18:26:00,43.0,37.2,30.18,ESE,112,0.0,0.0,80,0.00,,OVC060,0.00,VWS V14.00,2013-02-18 02:26:00,
2013-02-17 18:28:00,43.2,37.4,30.18,ESE,112,0.0,0.0,80,0.00,,OVC060,0.00,VWS V14.00,2013-02-18 02:28:00,
2013-02-17 18:31:00,43.0,37.2,30.18,ESE,112,0.0,0.0,80,0.00,,OVC060,0.00,VWS V14.00,2013-02-18 02:31:00,
2013-02-17 18:33:00,43.0,37.2,30.18,ESE,112,0.0,0.0,80,0.00,,OVC031,0.00,VWS V14.00,2013-02-18 02:33:00,
2013-02-17 18:36:00,42.8,37.1,30.18,ESE,112,0.0,0.0,80,0.00,,OVC031,0.00,VWS V14.00,2013-02-18 02:36:00,
2013-02-17 18:38:00,42.8,37.4,30.18,ESE,112,0.0,0.0,81,0.00,,OVC031,0.00,VWS V14.00,2013-02-18 02:38:00,
2013-02-17 18:41:00,42.6,37.2,30.18,ESE,112,0.0,0.0,81,0.00,,OVC031,0.00,VWS V14.00,2013-02-18 02:41:00,
2013-02-17 18:43:00,42.4,37.0,30.18,ESE,112,0.0,0.0,81,0.00,,OVC031,0.00,VWS V14.00,2013-02-18 02:43:00,
2013-02-17 18:46:00,42.4,37.0,30.18,ESE,112,0.0,0.0,81,0.00,,OVC031,0.00,VWS V14.00,2013-02-18 02:46:00,
2013-02-17 18:47:00,42.4,37.0,30.18,ESE,112,0.0,0.0,81,0.00,,OVC031,0.00,VWS V14.00,2013-02-18 02:47:00,
2013-02-17 18:48:00,42.4,37.0,30.18,ESE,112,0.0,0.0,81,0.00,,OVC026,0.00,VWS V14.00,2013-02-18 02:48:00,
2013-02-17 18:51:00,42.4,37.0,30.18,ESE,112,0.0,0.0,81,0.00,,OVC026,0.00,VWS V14.00,2013-02-18 02:51:00,
2013-02-17 18:52:00,42.4,37.0,30.18,ESE,112,0.0,0.0,81,0.00,,OVC026,0.00,VWS V14.00,2013-02-18 02:52:00,
2013-02-17 18:53:00,42.4,37.0,30.18,East,90,0.0,0.0,81,0.00,,OVC026,0.00,VWS V14.00,2013-02-18 02:53:00,
2013-02-17 18:56:00,42.4,37.3,30.18,East,90,0.0,0.0,82,0.00,,OVC026,0.00,VWS V14.00,2013-02-18 02:56:00,
2013-02-17 18:57:00,42.4,37.3,30.18,East,90,0.0,0.0,82,0.00,,OVC026,0.00,VWS V14.00,2013-02-18 02:57:00,
2013-02-17 18:58:00,42.4,37.3,30.18,ESE,112,0.0,0.0,82,0.00,,OVC026,0.00,VWS V14.00,2013-02-18 02:58:00,
2013-02-17 19:01:00,42.3,37.2,30.18,ESE,112,1.6,3.1,82,0.00,,OVC026,0.00,VWS V14.00,2013-02-18 03:01:00,
2013-02-17 19:02:00,42.3,37.2,30.18,ESE,112,0.0,3.1,82,0.00,,OVC026,0.00,VWS V14.00,2013-02-18 03:02:00,
2013-02-17 19:03:00,42.1,37.0,30.18,ESE,112,0.0,3.1,82,0.00,,OVC026,0.00,VWS V14.00,2013-02-18 03:03:00,
2013-02-17 19:06:00,42.1,37.0,30.18,ESE,112,0.0,3.1,82,0.00,,OVC026,0.00,VWS V14.00,2013-02-18 03:06:00,
2013-02-17 19:07:00,42.1,37.0,30.18,ESE,112,0.0,3.1,82,0.00,,OVC026,0.00,VWS V14.00,2013-02-18 03:07:00,
2013-02-17 19:08:00,42.1,37.0,30.18,ESE,112,0.0,0.0,82,0.00,,OVC026,0.00,VWS V14.00,2013-02-18 03:08:00,
2013-02-17 19:09:00,42.1,37.0,30.18,ENE,68,0.0,0.0,82,0.00,,OVC026,0.00,VWS V14.00,2013-02-18 03:09:00,
2013-02-17 19:11:00,42.1,37.0,30.18,ENE,68,0.0,0.0,82,0.00,,OVC026,0.00,VWS V14.00,2013-02-18 03:11:00,
2013-02-17 19:12:00,42.1,37.0,30.18,ENE,68,0.0,0.0,82,0.00,,OVC026,0.00,VWS V14.00,2013-02-18 03:12:00,
2013-02-17 19:13:00,42.3,37.2,30.18,ENE,68,0.0,0.0,82,0.00,,OVC026,0.00,VWS V14.00,2013-02-18 03:13:00,
2013-02-17 19:14:00,42.3,37.2,30.18,ENE,68,0.0,0.0,82,0.00,,OVC026,0.00,VWS V14.00,2013-02-18 03:14:00,
2013-02-17 19:16:00,42.3,37.2,30.18,ENE,68,0.0,0.0,82,0.00,,OVC026,0.00,VWS V14.00,2013-02-18 03:16:00,
2013-02-17 19:17:00,42.3,37.2,30.18,ENE,68,0.0,0.0,82,0.00,,OVC026,0.00,VWS V14.00,2013-02-18 03:17:00,
2013-02-17 19:18:00,42.3,37.2,30.18,ESE,112,0.9,0.9,82,0.00,,OVC026,0.00,VWS V14.00,2013-02-18 03:18:00,
2013-02-17 19:19:00,42.3,37.2,30.18,ESE,112,0.9,0.9,82,0.00,,OVC026,0.00,VWS V14.00,2013-02-18 03:19:00,
2013-02-17 19:21:00,42.3,37.2,30.18,ENE,68,0.0,0.9,82,0.00,,OVC026,0.00,VWS V14.00,2013-02-18 03:21:00,
2013-02-17 19:22:00,42.3,37.2,30.18,ENE,68,0.0,0.9,82,0.00,,OVC026,0.00,VWS V14.00,2013-02-18 03:22:00,
2013-02-17 19:23:00,42.3,37.2,30.18,ENE,68,0.0,0.0,82,0.00,,OVC026,0.00,VWS V14.00,2013-02-18 03:23:00,
2013-02-17 19:24:00,42.3,37.2,30.18,ESE,112,0.0,0.0,82,0.00,,OVC026,0.00,VWS V14.00,2013-02-18 03:24:00,
2013-02-17 19:26:00,42.4,37.0,30.18,WSW,248,0.0,0.0,81,0.00,,OVC026,0.00,VWS V14.00,2013-02-18 03:26:00,
2013-02-17 19:27:00,42.4,37.0,30.18,WSW,248,0.0,0.0,81,0.00,,OVC026,0.00,VWS V14.00,2013-02-18 03:27:00,
2013-02-17 19:28:00,42.4,37.0,30.18,West,270,0.0,0.0,81,0.00,,OVC026,0.00,VWS V14.00,2013-02-18 03:28:00,
2013-02-17 19:29:00,42.4,37.0,30.18,West,270,0.0,0.0,81,0.00,,OVC026,0.00,VWS V14.00,2013-02-18 03:29:00,
2013-02-17 19:32:00,42.4,37.3,30.18,West,270,0.0,0.0,82,0.00,,OVC031,0.00,VWS V14.00,2013-02-18 03:32:00,
2013-02-17 19:33:00,42.4,37.3,30.18,West,270,0.0,0.0,82,0.00,,OVC031,0.00,VWS V14.00,2013-02-18 03:33:00,
2013-02-17 19:34:00,42.4,37.3,30.18,West,270,0.0,0.0,82,0.00,,OVC031,0.00,VWS V14.00,2013-02-18 03:34:00,
2013-02-17 19:37:00,42.4,37.3,30.18,West,270,0.0,0.0,82,0.00,,OVC031,0.00,VWS V14.00,2013-02-18 03:37:00,
2013-02-17 19:38:00,42.4,37.3,30.18,West,270,0.0,0.0,82,0.00,,OVC031,0.00,VWS V14.00,2013-02-18 03:38:00,
2013-02-17 19:39:00,42.4,37.3,30.18,West,270,0.0,0.0,82,0.00,,OVC031,0.00,VWS V14.00,2013-02-18 03:39:00,
2013-02-17 19:42:00,42.4,37.3,30.18,ENE,68,0.0,0.0,82,0.00,,OVC031,0.00,VWS V14.00,2013-02-18 03:42:00,
2013-02-17 19:43:00,42.4,37.3,30.18,ENE,68,0.0,0.0,82,0.00,,OVC031,0.00,VWS V14.00,2013-02-18 03:43:00,
2013-02-17 19:44:00,42.4,37.3,30.18,ENE,68,0.0,0.0,82,0.00,,OVC031,0.00,VWS V14.00,2013-02-18 03:44:00,
2013-02-17 19:47:00,42.4,37.3,30.15,ENE,68,0.0,0.0,82,0.00,,OVC031,0.00,VWS V14.00,2013-02-18 03:47:00,
2013-02-17 19:48:00,42.4,37.3,30.15,ENE,68,0.0,0.0,82,0.00,,OVC031,0.00,VWS V14.00,2013-02-18 03:48:00,
2013-02-17 19:49:00,42.4,37.3,30.15,ENE,68,0.0,0.0,82,0.00,,OVC031,0.00,VWS V14.00,2013-02-18 03:49:00,
2013-02-17 19:52:00,42.4,37.3,30.15,East,90,0.0,0.0,82,0.00,,OVC031,0.00,VWS V14.00,2013-02-18 03:52:00,
2013-02-17 19:53:00,42.4,37.3,30.15,East,90,0.0,0.0,82,0.00,,OVC031,0.00,VWS V14.00,2013-02-18 03:53:00,
2013-02-17 19:54:00,42.4,37.3,30.15,East,90,0.0,0.0,82,0.00,,OVC031,0.00,VWS V14.00,2013-02-18 03:54:00,
2013-02-17 19:57:00,42.4,37.3,30.15,East,90,0.0,0.0,82,0.00,,OVC031,0.00,VWS V14.00,2013-02-18 03:57:00,
2013-02-17 19:58:00,42.4,37.3,30.15,East,90,0.0,0.0,82,0.00,,OVC031,0.00,VWS V14.00,2013-02-18 03:58:00,
2013-02-17 19:59:00,42.4,37.3,30.15,East,90,0.0,0.0,82,0.00,,OVC031,0.00,VWS V14.00,2013-02-18 03:59:00,
2013-02-17 20:02:00,42.4,37.3,30.15,East,90,0.0,0.0,82,0.00,,OVC031,0.00,VWS V14.00,2013-02-18 04:02:00,
2013-02-17 20:03:00,42.4,37.7,30.15,East,90,0.0,0.0,83,0.00,,OVC031,0.00,VWS V14.00,2013-02-18 04:03:00,
2013-02-17 20:04:00,42.4,37.3,30.15,East,90,0.0,0.0,82,0.00,,OVC031,0.00,VWS V14.00,2013-02-18 04:04:00,
2013-02-17 20:07:00,42.3,37.5,30.15,East,90,0.0,0.0,83,0.00,,OVC031,0.00,VWS V14.00,2013-02-18 04:07:00,
2013-02-17 20:09:00,42.4,37.7,30.15,East,90,0.0,0.0,83,0.00,,OVC031,0.00,VWS V14.00,2013-02-18 04:09:00,
2013-02-17 20:12:00,42.4,37.7,30.15,East,90,0.0,0.0,83,0.00,,OVC031,0.00,VWS V14.00,2013-02-18 04:12:00,
2013-02-17 20:14:00,42.4,37.7,30.15,East,90,0.0,0.0,83,0.00,,OVC031,0.00,VWS V14.00,2013-02-18 04:14:00,
2013-02-17 20:17:00,42.3,37.5,30.15,East,90,0.0,0.0,83,0.00,,OVC031,0.00,VWS V14.00,2013-02-18 04:17:00,
2013-02-17 20:19:00,42.3,37.5,30.15,East,90,0.0,0.0,83,0.00,,OVC031,0.00,VWS V14.00,2013-02-18 04:19:00,
2013-02-17 20:22:00,42.3,37.5,30.15,East,90,0.0,0.0,83,0.00,,OVC031,0.00,VWS V14.00,2013-02-18 04:22:00,
2013-02-17 20:24:00,42.3,37.5,30.15,East,90,0.0,0.0,83,0.00,,OVC031,0.00,VWS V14.00,2013-02-18 04:24:00,
2013-02-17 20:27:00,42.3,37.8,30.15,East,90,0.0,0.0,84,0.00,,OVC031,0.00,VWS V14.00,2013-02-18 04:27:00,
2013-02-17 20:29:00,42.3,37.8,30.15,East,90,0.0,0.0,84,0.00,,OVC031,0.00,VWS V14.00,2013-02-18 04:29:00,
2013-02-17 20:32:00,42.3,37.8,30.15,East,90,0.0,0.0,84,0.00,,OVC035,0.00,VWS V14.00,2013-02-18 04:32:00,
2013-02-17 20:33:00,42.3,37.8,30.15,East,90,0.0,0.0,84,0.00,,OVC035,0.00,VWS V14.00,2013-02-18 04:33:00,
2013-02-17 20:34:00,42.1,37.6,30.15,East,90,0.0,0.0,84,0.00,,OVC035,0.00,VWS V14.00,2013-02-18 04:34:00,
2013-02-17 20:37:00,42.1,37.6,30.15,East,90,0.0,0.0,84,0.00,,OVC035,0.00,VWS V14.00,2013-02-18 04:37:00,
2013-02-17 20:38:00,42.1,37.6,30.15,East,90,0.0,0.0,84,0.00,,OVC035,0.00,VWS V14.00,2013-02-18 04:38:00,
2013-02-17 20:39:00,42.1,37.6,30.15,East,90,0.0,0.0,84,0.00,,OVC035,0.00,VWS V14.00,2013-02-18 04:39:00,
2013-02-17 20:42:00,42.1,37.6,30.15,East,90,0.0,0.0,84,0.00,,OVC035,0.00,VWS V14.00,2013-02-18 04:42:00,
2013-02-17 20:43:00,42.1,37.6,30.15,East,90,0.0,0.0,84,0.00,,OVC035,0.00,VWS V14.00,2013-02-18 04:43:00,
2013-02-17 20:44:00,42.1,37.6,30.15,East,90,0.0,0.0,84,0.00,,OVC035,0.00,VWS V14.00,2013-02-18 04:44:00,
2013-02-17 20:47:00,42.1,37.9,30.15,East,90,0.0,0.0,85,0.00,,OVC035,0.00,VWS V14.00,2013-02-18 04:47:00,
2013-02-17 20:48:00,42.1,37.9,30.15,East,90,0.0,0.0,85,0.00,,OVC041,0.00,VWS V14.00,2013-02-18 04:48:00,
2013-02-17 20:49:00,42.1,37.9,30.15,East,90,0.0,0.0,85,0.00,,OVC041,0.00,VWS V14.00,2013-02-18 04:49:00,
2013-02-17 20:52:00,41.9,37.7,30.15,East,90,0.0,0.0,85,0.00,,OVC041,0.00,VWS V14.00,2013-02-18 04:52:00,
2013-02-17 20:53:00,41.9,37.7,30.15,East,90,0.0,0.0,85,0.00,,OVC041,0.00,VWS V14.00,2013-02-18 04:53:00,
2013-02-17 20:54:00,41.9,37.7,30.15,East,90,0.0,0.0,85,0.00,,OVC041,0.00,VWS V14.00,2013-02-18 04:54:00,
2013-02-17 20:57:00,41.9,37.7,30.15,East,90,0.0,0.0,85,0.00,,OVC041,0.00,VWS V14.00,2013-02-18 04:57:00,
2013-02-17 20:58:00,41.9,37.7,30.15,East,90,0.0,0.0,85,0.00,,OVC041,0.00,VWS V14.00,2013-02-18 04:58:00,
2013-02-17 20:59:00,41.9,37.7,30.15,East,90,0.0,0.0,85,0.00,,OVC041,0.00,VWS V14.00,2013-02-18 04:59:00,
2013-02-17 21:00:00,41.9,37.7,30.15,East,90,0.0,0.0,85,0.00,,OVC041,0.00,VWS V14.00,2013-02-18 05:00:00,
2013-02-17 21:05:00,41.9,38.0,30.15,East,90,0.0,0.0,86,0.00,,OVC041,0.00,VWS V14.00,2013-02-18 05:05:00,
2013-02-17 21:10:00,41.9,38.0,30.15,East,90,0.0,0.0,86,0.00,,OVC041,0.00,VWS V14.00,2013-02-18 05:10:00,
2013-02-17 21:15:00,42.1,38.2,30.15,East,90,0.0,0.0,86,0.00,,OVC041,0.00,VWS V14.00,2013-02-18 05:15:00,
2013-02-17 21:20:00,41.7,37.8,30.15,East,90,0.0,0.0,86,0.00,,OVC041,0.00,VWS V14.00,2013-02-18 05:20:00,
2013-02-17 21:25:00,41.7,37.8,30.15,East,90,0.0,0.0,86,0.00,,OVC041,0.00,VWS V14.00,2013-02-18 05:25:00,
2013-02-17 21:30:00,41.7,37.8,30.15,East,90,0.0,0.0,86,0.00,,OVC041,0.00,VWS V14.00,2013-02-18 05:30:00,
2013-02-17 21:35:00,41.5,37.7,30.15,ESE,112,0.0,0.0,86,0.00,,OVC030,0.00,VWS V14.00,2013-02-18 05:35:00,
2013-02-17 21:40:00,41.4,37.5,30.15,ESE,112,0.0,0.0,86,0.00,,OVC030,0.00,VWS V14.00,2013-02-18 05:40:00,
2013-02-17 21:45:00,41.4,37.5,30.15,ESE,112,0.0,0.0,86,0.00,,OVC030,0.00,VWS V14.00,2013-02-18 05:45:00,
2013-02-17 21:50:00,41.2,37.3,30.12,ESE,112,0.0,0.0,86,0.00,,OVC030,0.00,VWS V14.00,2013-02-18 05:50:00,
2013-02-17 21:55:00,41.2,37.3,30.12,ESE,112,0.0,0.0,86,0.00,,OVC030,0.00,VWS V14.00,2013-02-18 05:55:00,
2013-02-17 22:00:00,41.2,37.3,30.12,ESE,112,0.0,0.0,86,0.00,,OVC032,0.00,VWS V14.00,2013-02-18 06:00:00,
2013-02-17 22:05:00,41.0,37.1,30.12,ESE,112,0.0,0.0,86,0.00,,OVC032,0.00,VWS V14.00,2013-02-18 06:05:00,
2013-02-17 22:10:00,41.0,37.1,30.12,ESE,112,0.0,0.0,86,0.00,,OVC032,0.00,VWS V14.00,2013-02-18 06:10:00,
2013-02-17 22:11:00,41.0,37.1,30.12,ESE,112,0.0,0.0,86,0.00,,OVC032,0.00,VWS V14.00,2013-02-18 06:11:00,
2013-02-17 22:15:00,41.0,37.1,30.12,ESE,112,0.0,0.0,86,0.00,,OVC032,0.00,VWS V14.00,2013-02-18 06:15:00,
2013-02-17 22:16:00,41.0,37.1,30.12,ESE,112,0.0,0.0,86,0.00,,OVC032,0.00,VWS V14.00,2013-02-18 06:16:00,
2013-02-17 22:20:00,41.0,37.4,30.12,ESE,112,0.0,0.0,87,0.00,,OVC032,0.00,VWS V14.00,2013-02-18 06:20:00,
2013-02-17 22:21:00,41.0,37.4,30.12,ESE,112,0.0,0.0,87,0.00,,OVC032,0.00,VWS V14.00,2013-02-18 06:21:00,
2013-02-17 22:25:00,41.0,37.4,30.12,ESE,112,0.0,0.0,87,0.00,,OVC032,0.00,VWS V14.00,2013-02-18 06:25:00,
2013-02-17 22:26:00,41.0,37.4,30.12,ESE,112,0.0,0.0,87,0.00,,OVC032,0.00,VWS V14.00,2013-02-18 06:26:00,
2013-02-17 22:30:00,41.0,37.4,30.12,ESE,112,0.0,0.0,87,0.00,,OVC032,0.00,VWS V14.00,2013-02-18 06:30:00,
2013-02-17 22:31:00,41.0,37.4,30.12,ESE,112,0.0,0.0,87,0.00,,OVC032,0.00,VWS V14.00,2013-02-18 06:31:00,
2013-02-17 22:35:00,40.8,37.3,30.12,SE,135,0.0,0.0,87,0.00,,OVC036,0.00,VWS V14.00,2013-02-18 06:35:00,
2013-02-17 22:36:00,40.8,37.3,30.12,SE,135,0.0,0.0,87,0.00,,OVC036,0.00,VWS V14.00,2013-02-18 06:36:00,
2013-02-17 22:40:00,40.8,37.5,30.12,SE,135,0.0,0.0,88,0.00,,OVC036,0.00,VWS V14.00,2013-02-18 06:40:00,
2013-02-17 22:41:00,40.8,37.5,30.12,SE,135,0.0,0.0,88,0.00,,OVC036,0.00,VWS V14.00,2013-02-18 06:41:00,
2013-02-17 22:45:00,40.6,37.1,30.12,ESE,112,0.0,0.0,87,0.00,,OVC036,0.00,VWS V14.00,2013-02-18 06:45:00,
2013-02-17 22:46:00,40.6,37.1,30.12,ESE,112,0.0,0.0,87,0.00,,OVC036,0.00,VWS V14.00,2013-02-18 06:46:00,
2013-02-17 22:50:00,40.6,37.4,30.12,ESE,112,0.0,0.0,88,0.00,,OVC038,0.00,VWS V14.00,2013-02-18 06:50:00,
2013-02-17 22:51:00,40.6,37.4,30.12,ESE,112,0.0,0.0,88,0.00,,OVC038,0.00,VWS V14.00,2013-02-18 06:51:00,
2013-02-17 22:55:00,40.5,37.2,30.12,ESE,112,0.0,0.0,88,0.00,,OVC038,0.00,VWS V14.00,2013-02-18 06:55:00,
2013-02-17 22:56:00,40.5,37.2,30.12,ESE,112,0.0,0.0,88,0.00,,OVC038,0.00,VWS V14.00,2013-02-18 06:56:00,
2013-02-17 23:01:00,40.5,37.2,30.12,ESE,112,0.0,0.0,88,0.00,,OVC038,0.00,VWS V14.00,2013-02-18 07:01:00,
2013-02-17 23:06:00,40.5,37.2,30.12,ESE,112,0.0,0.0,88,0.00,,OVC038,0.00,VWS V14.00,2013-02-18 07:06:00,
2013-02-17 23:11:00,40.3,37.0,30.12,ESE,112,0.0,0.0,88,0.00,,OVC038,0.00,VWS V14.00,2013-02-18 07:11:00,
2013-02-17 23:16:00,40.3,37.0,30.12,ESE,112,0.0,0.0,88,0.00,,OVC038,0.00,VWS V14.00,2013-02-18 07:16:00,
2013-02-17 23:21:00,40.1,36.8,30.12,ESE,112,0.0,0.0,88,0.00,,OVC038,0.00,VWS V14.00,2013-02-18 07:21:00,
2013-02-17 23:26:00,39.9,36.7,30.12,SSW,202,0.0,0.0,88,0.00,,OVC038,0.00,VWS V14.00,2013-02-18 07:26:00,
2013-02-17 23:31:00,39.9,36.7,30.12,ESE,112,0.0,0.0,88,0.00,,OVC038,0.00,VWS V14.00,2013-02-18 07:31:00,
2013-02-17 23:36:00,39.6,36.3,30.12,ESE,112,0.0,0.0,88,0.00,,OVC044,0.00,VWS V14.00,2013-02-18 07:36:00,
2013-02-17 23:41:00,39.6,36.3,30.12,ESE,112,0.0,0.0,88,0.00,,OVC044,0.00,VWS V14.00,2013-02-18 07:41:00,
2013-02-17 23:46:00,39.4,36.4,30.09,ESE,112,0.0,0.0,89,0.00,,OVC044,0.00,VWS V14.00,2013-02-18 07:46:00,
2013-02-17 23:51:00,39.2,36.2,30.09,ESE,112,0.0,0.0,89,0.00,,OVC120,0.00,VWS V14.00,2013-02-18 07:51:00,
2013-02-17 23:56:00,39.2,36.2,30.09,ESE,112,0.0,0.0,89,0.00,,OVC120,0.00,VWS V14.00,2013-02-18 07:56:00,